GFSFLT1_sfc_rhum_000.txt.gz
RH
79 86 87 94 94 94 93 90 88 85 86 89 86 84 83 87 75 63 54 53 58 63 68 70 67 67 71 71 69 72 73 80
74 80 81 78 88 85 82 83 84 81 82 82 79 80 85 72 66 62 60 57 60 65 71 72 72 71 75 76 77 77 74 90
62 62 70 77 84 82 77 74 72 66 74 84 83 85 75 68 60 61 64 63 62 63 74 77 75 74 80 85 86 83 85 94
59 57 61 66 63 62 55 58 58 64 75 74 68 67 69 62 69 62 65 65 65 67 73 76 78 80 86 91 90 89 94 92
53 51 49 48 52 50 50 51 51 52 56 57 56 64 65 77 70 63 66 66 65 65 70 76 78 83 86 88 82 85 89 86
52 53 53 59 53 53 56 52 52 54 58 66 71 68 76 75 67 62 60 65 66 67 70 74 77 83 82 82 80 79 84 85
61 57 52 54 58 58 57 60 64 64 64 66 65 67 66 61 64 67 68 68 72 73 72 80 82 82 81 81 80 82 85 87
70 58 58 64 62 61 59 59 59 60 62 61 60 56 54 60 66 73 74 74 77 81 82 84 83 80 77 75 74 76 77 78
65 71 68 66 62 56 55 55 55 58 62 62 64 66 72 74 77 76 74 80 82 85 82 75 74 69 74 73 71 79 79 80
70 68 64 65 68 66 57 56 56 58 62 68 70 69 67 72 74 80 85 86 81 88 77 79 80 84 74 74 77 69 79 82
66 62 63 66 68 73 63 51 46 48 51 60 56 59 62 70 79 80 84 86 80 76 74 80 72 70 64 70 75 76 82 88
64 62 60 53 48 46 43 43 41 45 50 55 58 64 68 72 77 82 84 79 77 77 70 73 72 73 75 72 71 74 83 82
61 57 47 40 40 40 43 41 40 45 50 56 61 66 68 72 75 77 77 74 73 73 77 80 80 76 72 69 72 76 71 67
64 56 41 40 43 46 43 41 40 44 46 54 65 72 76 75 72 71 73 74 74 78 81 78 72 66 65 69 74 72 64 65
61 54 40 42 44 43 43 45 50 49 49 58 69 76 81 83 82 80 82 85 90 86 78 76 66 63 64 70 66 65 66 67
58 50 42 40 41 46 43 48 51 52 52 57 68 79 80 83 87 90 91 89 81 86 85 67 62 62 62 66 61 67 70 70
50 44 32 36 41 43 42 45 49 53 56 60 71 78 82 86 90 92 93 88 90 74 56 63 67 58 73 72 78 88 78 73
46 36 30 32 40 42 42 44 49 53 60 62 74 81 85 87 91 94 95 93 84 77 67 71 77 89 79 82 88 85 86 85
47 43 29 28 39 41 46 45 48 54 59 65 77 82 84 88 92 92 93 93 91 67 79 80 89 73 72 80 76 82 76 75

GFSFLT1_sfc_rhum_003.txt.gz
RH
74 79 82 77 69 72 74 74 86 87 69 59 60 57 56 53 43 41 44 42 50 49 48 53 45 43 44 41 44 41 46 49
73 82 86 80 76 74 73 68 64 60 54 58 58 59 54 42 38 45 46 45 45 50 44 45 46 44 50 48 40 42 38 51
69 76 77 75 74 69 66 58 49 44 49 53 58 58 48 40 41 46 45 48 43 42 48 45 49 45 55 54 48 40 45 58
66 73 75 73 66 63 58 50 47 47 53 48 46 47 48 41 40 38 41 43 38 41 49 49 53 52 52 57 54 51 46 52
49 53 56 56 48 46 43 44 42 44 48 46 52 43 42 50 43 41 40 48 47 42 47 54 57 56 60 58 51 53 51 47
39 38 37 36 43 48 49 48 46 47 49 49 44 48 48 45 45 52 53 52 52 50 52 58 61 57 61 59 56 49 41 39
41 42 42 43 46 53 53 46 45 46 46 49 52 50 47 46 50 51 50 50 48 53 53 60 62 61 58 54 54 49 42 40
49 43 43 48 52 53 47 42 45 46 48 47 49 49 51 49 48 47 51 46 44 51 61 64 60 58 58 53 51 50 43 36
50 49 48 46 50 47 46 43 41 41 42 39 36 33 29 28 36 38 40 44 48 60 63 62 58 56 55 59 50 46 50 47
53 52 50 47 46 51 47 33 27 29 34 34 38 39 40 41 45 46 45 57 57 68 62 60 61 58 56 53 50 51 51 56
55 51 56 55 51 44 38 27 26 30 33 38 38 42 43 46 47 48 52 58 62 66 60 59 60 57 52 53 50 50 55 56
52 52 55 58 43 33 32 31 29 32 34 41 45 44 47 48 48 51 54 60 61 60 59 58 57 55 53 54 54 52 56 57
48 45 42 36 32 30 33 31 30 32 36 40 43 47 49 50 52 54 58 59 58 59 59 58 57 56 52 50 52 48 52 52
45 34 30 30 32 34 31 32 30 30 31 33 40 47 52 52 55 59 61 62 60 64 63 65 54 53 45 48 53 53 51 48
43 32 28 30 33 33 33 36 37 34 32 34 44 52 55 57 59 62 66 68 70 65 67 63 59 44 45 50 48 47 47 48
46 36 28 30 35 35 32 34 37 38 37 37 45 54 57 57 62 64 67 71 70 70 64 45 48 47 43 49 46 51 56 56
44 37 27 29 32 34 33 34 36 39 40 44 45 57 57 59 62 67 68 69 69 57 55 52 54 49 78 81 70 54 50 47
42 38 30 26 31 35 32 30 35 38 42 43 48 55 59 61 62 60 64 67 69 67 56 55 59 60 74 78 74 46 45 47
43 36 31 25 26 30 33 30 33 38 39 42 47 54 58 59 62 60 67 66 64 63 56 54 57 55 66 64 67 53 49 47

GFSFLT1_sfc_rhum_006.txt.gz
RH
42 34 34 37 45 48 54 48 53 56 46 48 37 34 34 32 31 31 35 33 38 36 37 41 34 30 30 32 38 33 35 36
47 51 47 46 50 54 51 54 53 45 41 40 36 36 36 33 30 37 37 35 34 37 31 34 36 35 42 42 37 37 34 37
55 56 54 53 52 49 49 48 46 39 35 35 37 37 34 31 33 37 34 35 31 31 39 36 38 36 41 46 45 38 30 36
55 57 56 55 54 54 48 42 36 37 39 34 34 36 34 31 30 28 34 37 33 33 38 39 42 39 38 44 44 45 40 35
51 53 56 54 55 49 39 35 36 36 33 36 41 33 32 35 33 32 34 39 40 35 36 41 44 40 42 43 38 44 41 35
45 44 43 38 41 40 39 35 34 35 36 37 34 37 34 33 34 38 36 35 36 34 35 40 43 38 43 49 48 42 37 39
32 32 30 31 36 40 40 36 35 36 37 40 44 43 35 29 26 24 20 20 20 24 24 40 46 46 51 47 45 45 43 39
29 29 28 33 40 42 38 35 36 37 38 35 31 27 25 23 23 21 25 22 23 27 33 38 42 49 47 46 49 51 43 38
31 29 31 35 41 38 37 35 35 31 27 23 23 23 22 21 27 28 27 28 31 39 46 47 50 48 48 57 51 44 42 38
33 34 36 38 38 42 40 30 24 23 25 26 29 29 32 33 34 33 30 34 33 42 52 52 53 51 57 48 41 41 40 39
37 37 39 37 39 37 33 25 23 26 27 29 29 31 32 34 34 35 36 38 39 44 48 53 52 52 44 42 38 34 36 35
39 39 40 38 37 32 28 25 26 27 25 30 34 33 33 34 34 35 37 41 40 42 46 50 50 44 41 47 37 34 34 36
38 40 43 42 34 28 27 27 25 24 27 30 31 33 33 34 35 36 41 42 42 43 45 47 45 43 45 38 35 34 35 37
38 39 40 35 30 28 28 28 24 22 21 23 27 31 34 36 37 39 41 44 46 47 46 48 45 42 37 33 36 37 38 39
37 36 33 28 26 28 28 31 26 23 20 22 28 34 36 39 39 40 42 45 48 47 47 49 48 39 34 36 36 40 40 40
37 33 29 26 26 29 29 28 27 26 24 24 30 35 38 38 41 40 43 49 47 46 46 42 41 40 33 44 44 45 44 42
36 33 28 26 26 28 27 25 26 26 27 29 30 34 38 41 40 45 44 44 44 44 47 50 48 35 82 76 58 38 38 37
36 35 30 26 25 29 26 23 25 27 27 29 31 35 40 39 37 37 38 42 45 44 45 51 51 50 75 68 64 39 40 38
35 34 31 26 23 26 23 20 22 25 27 28 31 35 36 34 35 38 41 42 43 41 41 46 49 47 62 60 61 43 40 39

GFSFLT1_sfc_rhum_009.txt.gz
RH
28 25 24 29 37 41 45 46 49 58 40 42 37 34 32 30 29 30 33 31 36 37 32 40 38 32 33 37 45 39 38 34
32 29 29 32 40 42 46 46 47 41 36 35 35 36 34 32 31 35 35 35 32 37 34 35 36 36 40 42 41 44 38 33
35 37 36 38 43 45 44 44 43 34 32 30 33 34 31 30 33 36 33 36 32 33 39 38 38 38 42 43 44 43 35 31
42 43 43 44 46 46 42 39 35 32 34 32 32 32 33 30 29 28 32 37 35 35 37 38 41 39 35 42 40 45 40 34
41 44 48 52 47 43 36 35 34 34 28 32 37 31 31 35 33 32 31 32 31 27 27 32 37 37 40 38 32 43 44 39
40 42 44 40 42 41 37 34 30 31 33 35 33 35 32 30 28 27 24 23 21 18 21 28 35 36 41 44 46 46 41 42
37 37 37 39 39 40 38 32 31 34 37 40 42 37 28 25 25 22 20 20 20 24 24 32 34 35 42 42 46 48 54 50
31 32 29 32 37 39 35 32 34 36 37 32 29 28 27 24 25 24 27 24 24 28 35 39 36 38 42 47 59 62 60 52
27 27 26 30 36 36 33 32 34 33 28 26 26 23 23 23 27 27 25 26 27 32 36 41 40 42 50 49 57 62 59 48
24 25 26 31 36 37 37 33 29 25 27 30 31 30 32 31 30 30 27 30 26 31 38 40 47 46 53 60 49 49 41 42
26 26 29 32 35 34 38 30 24 27 30 32 29 30 30 31 31 31 31 33 33 34 36 38 42 44 49 44 40 42 43 38
27 28 31 33 34 36 33 26 26 30 28 28 35 30 31 31 31 31 32 35 33 33 34 38 37 38 37 40 42 44 37 38
26 31 33 34 36 34 29 27 28 27 26 30 31 31 30 30 31 31 33 35 35 36 37 37 36 36 36 37 38 35 37 39
27 32 35 35 37 33 29 29 26 24 24 24 26 28 30 31 32 33 33 34 36 38 37 38 36 44 40 39 34 37 42 44
28 32 36 37 35 30 28 30 28 24 19 20 23 29 30 32 34 35 35 35 38 39 37 37 40 36 31 32 33 38 42 44
31 34 35 36 33 29 27 30 29 24 21 20 25 29 32 32 35 36 35 39 37 36 37 42 46 40 33 45 44 46 42 41
31 32 32 32 30 27 28 30 28 26 25 26 27 29 29 32 36 38 38 36 34 34 35 39 49 40 85 73 58 42 38 37
31 31 30 29 28 28 30 27 26 26 26 25 27 30 30 34 33 30 32 35 36 36 35 35 45 48 77 66 60 41 42 42
29 29 30 28 26 26 28 23 23 25 25 26 28 28 29 29 29 29 31 35 36 36 35 37 40 54 67 60 60 49 45 43

GFSFLT1_sfc_rhum_012.txt.gz
RH
27 26 32 39 45 49 57 60 70 74 64 62 60 58 56 54 53 52 52 48 53 60 62 58 57 58 60 65 66 65 66 64
29 31 36 44 50 50 55 61 66 63 54 53 55 58 55 52 50 51 54 51 47 53 58 59 60 60 66 62 64 64 64 60
34 34 36 46 50 52 54 53 55 53 48 54 57 51 52 50 54 53 53 55 50 46 60 58 60 61 64 66 64 66 62 61
38 36 44 51 58 59 52 60 51 49 52 47 51 52 57 53 52 54 52 50 44 44 51 56 60 60 64 66 62 65 68 63
37 43 45 63 71 61 51 48 46 44 44 51 56 50 50 55 54 50 43 45 40 31 38 51 56 62 64 66 50 68 68 67
42 46 57 58 67 58 54 47 41 43 48 52 54 55 54 49 48 43 42 41 40 37 42 56 58 60 61 67 71 71 70 75
40 52 53 51 56 56 54 43 40 47 52 56 59 53 47 46 40 42 45 44 43 46 46 56 61 62 64 71 76 76 79 75
42 53 50 48 54 54 49 40 42 50 53 48 49 47 43 47 42 46 44 45 47 53 52 59 62 62 70 69 73 77 80 82
41 41 45 46 49 49 44 40 42 46 43 41 43 41 42 43 46 42 45 46 50 48 55 56 59 63 62 70 78 82 81 84
37 38 38 42 45 49 49 40 41 38 39 45 49 47 50 50 46 43 46 47 37 50 54 56 58 58 63 72 80 74 70 67
33 32 36 38 43 43 51 42 39 35 42 50 44 48 49 48 46 45 44 48 48 51 52 53 56 59 65 66 65 59 64 68
30 28 31 36 42 43 46 43 34 36 41 45 50 46 50 46 45 44 44 48 49 48 49 52 52 52 53 58 58 56 62 58
28 29 32 37 43 41 45 42 33 38 40 43 46 48 44 46 44 43 46 48 49 48 50 51 51 51 55 59 59 54 60 71
28 30 34 38 41 45 44 40 34 35 33 36 39 43 52 45 43 45 45 47 49 50 49 54 51 54 56 58 55 53 56 64
27 30 36 38 40 44 42 40 42 36 33 31 36 47 45 44 44 47 48 47 50 52 55 53 53 49 45 46 46 61 61 58
27 31 36 39 41 44 39 39 42 40 40 30 39 44 42 42 48 47 50 51 49 50 52 54 55 56 47 61 59 58 60 57
26 32 39 41 40 43 38 37 40 39 39 41 37 38 39 46 48 54 55 54 51 47 50 53 55 48 80 70 58 58 57 56
28 33 36 39 39 42 40 37 40 38 37 35 37 42 47 51 46 44 46 49 51 51 52 50 52 77 79 67 62 55 58 65
30 33 36 37 37 37 37 33 35 36 34 35 42 46 48 42 42 41 47 48 51 54 52 50 53 68 77 67 61 61 68 65

GFSFLT1_sfc_rhum_015.txt.gz
RH
39 48 50 57 56 70 73 73 75 79 82 75 74 69 71 68 63 62 55 56 53 65 69 69 67 68 70 69 69 71 76 68
36 47 52 62 73 66 73 77 76 83 71 74 74 72 65 62 59 55 59 60 59 60 64 60 67 66 70 69 73 66 66 71
36 49 55 57 72 65 70 71 75 74 54 66 65 57 62 59 63 62 56 55 53 53 63 66 65 66 67 69 67 68 74 69
45 46 60 60 66 65 66 67 64 65 55 56 58 61 67 68 67 66 61 46 35 38 52 56 58 64 72 73 71 70 71 70
46 56 69 63 72 61 62 56 52 57 54 52 50 62 60 68 61 49 42 40 39 39 52 57 60 66 61 72 65 80 76 78
52 61 74 70 70 79 64 48 46 56 57 58 58 62 55 52 48 46 39 45 44 46 53 56 64 70 72 82 83 84 82 81
56 67 69 70 79 72 46 43 55 62 64 61 54 47 47 45 46 50 45 49 53 54 45 62 64 71 81 84 83 84 85 81
71 71 70 68 75 64 46 51 61 56 52 49 47 45 44 42 46 50 47 48 51 51 54 61 67 76 72 78 83 86 86 89
68 63 59 62 58 46 52 55 60 52 50 47 44 43 52 48 49 49 52 52 54 51 57 57 62 65 74 80 83 85 86 87
65 61 56 56 52 59 58 54 56 48 48 50 48 49 54 54 50 47 54 53 40 53 56 55 60 66 73 76 82 82 83 74
64 56 56 54 56 59 60 57 48 45 51 54 50 53 53 52 52 50 48 50 48 54 55 57 57 59 63 72 79 71 65 72
52 49 51 52 54 58 60 58 46 49 55 53 56 55 56 51 52 52 48 50 47 51 54 56 56 57 60 64 64 56 69 75
43 43 48 53 54 55 57 56 42 50 53 54 55 53 50 52 51 48 52 49 52 51 52 57 57 60 61 61 63 63 68 72
39 40 44 50 54 55 56 51 44 48 46 52 57 54 51 49 48 47 50 51 51 50 53 58 60 58 57 61 65 62 65 65
39 37 45 50 51 53 54 53 46 45 46 47 57 56 51 50 50 51 53 51 50 50 55 60 64 54 52 57 60 64 62 60
41 44 54 48 50 55 55 64 52 49 46 41 48 53 53 49 51 50 52 55 50 51 57 61 63 60 55 63 59 60 59 60
34 50 52 52 58 63 61 59 56 47 42 43 47 53 53 55 54 54 55 58 55 55 57 58 60 56 77 72 63 60 56 59
36 43 54 54 61 61 57 52 52 46 49 46 51 54 55 61 58 54 53 56 57 57 56 57 59 71 79 72 65 56 58 68
37 40 45 54 60 60 56 49 47 47 45 49 57 62 60 58 59 54 54 55 55 58 60 60 69 71 81 75 67 60 67 73

GFSFLT1_sfc_rhum_021.txt.gz
RH
74 77 78 80 80 77 88 85 84 86 88 83 88 79 80 76 75 71 68 76 72 76 75 75 72 72 74 74 65 72 79 76
72 74 71 78 85 87 85 83 86 86 77 80 79 80 77 76 71 66 71 71 67 70 76 73 72 72 78 72 74 69 78 77
72 71 73 77 79 82 84 77 88 84 68 71 72 75 75 74 74 72 69 68 67 68 64 60 62 63 65 73 76 77 87 81
71 70 72 74 77 85 80 76 83 79 73 72 75 74 76 75 77 76 57 54 49 54 58 62 65 65 67 72 81 75 81 78
67 70 72 73 75 75 75 72 79 78 73 66 60 70 66 76 79 56 48 54 58 56 61 68 73 77 77 86 82 88 81 82
63 69 66 69 75 77 80 74 79 79 70 64 76 88 86 75 57 51 54 62 61 58 66 70 79 83 81 77 78 80 79 79
55 67 67 71 85 88 90 87 80 84 74 65 70 84 79 57 53 58 63 68 64 65 64 74 82 81 77 78 84 83 86 85
68 75 73 74 90 92 90 85 84 81 77 71 68 71 73 56 50 62 64 63 60 63 63 65 72 75 77 81 86 87 90 90
68 72 77 79 83 88 83 76 81 72 75 71 64 57 49 42 47 52 62 61 61 61 62 60 73 71 82 87 84 88 89 93
72 75 77 80 83 88 81 75 74 73 78 69 58 52 50 49 53 54 64 65 58 62 60 62 60 64 78 87 86 86 88 91
84 80 78 83 83 77 77 72 67 68 72 69 70 59 57 50 52 55 54 57 56 61 59 58 59 59 60 69 84 75 71 77
83 80 82 81 77 69 72 66 64 66 68 69 72 63 62 58 55 53 55 57 58 57 58 58 57 57 64 66 65 63 71 75
78 77 81 73 66 67 67 64 64 61 63 68 64 66 60 56 51 56 60 54 58 56 58 56 58 60 64 67 68 67 75 79
85 84 80 73 66 65 64 69 65 66 74 70 64 58 54 56 61 57 56 58 62 58 57 57 57 63 66 71 70 74 78 78
77 81 79 75 69 67 72 78 81 76 68 66 66 60 57 61 51 55 57 59 60 58 58 58 62 65 67 68 66 73 75 76
65 71 75 77 80 82 81 82 72 71 66 62 61 66 62 54 59 58 64 64 58 56 58 62 67 65 61 71 68 74 74 71
55 58 60 60 65 78 79 77 74 69 62 57 62 64 60 66 66 68 68 65 60 60 66 70 73 60 67 77 77 75 69 67
49 57 64 65 69 77 78 70 68 64 62 64 66 73 69 67 64 66 68 71 78 80 73 67 70 74 78 79 84 74 69 69
56 59 60 69 78 81 83 75 72 71 73 74 72 67 68 68 66 72 78 81 82 82 73 68 74 71 80 83 85 72 69 67

GFSFLT1_sfc_rhum_024.txt.gz
RH
78 83 90 93 94 90 90 92 92 90 96 94 96 88 85 84 81 79 78 77 72 78 80 79 76 74 76 71 69 80 80 74
77 81 90 93 93 90 92 93 91 88 90 91 93 86 88 80 75 72 79 76 73 76 78 75 74 74 79 74 74 72 80 79
83 87 89 92 90 90 93 88 88 83 76 79 76 79 79 77 76 76 76 73 72 73 71 72 73 71 71 78 75 84 82 80
82 85 87 88 88 88 86 85 84 81 76 75 78 80 76 76 80 78 70 65 58 57 62 67 66 68 69 78 81 77 80 73
76 82 85 88 87 84 84 82 83 83 74 70 63 71 71 77 81 64 55 59 60 59 65 71 74 79 83 81 80 84 80 77
72 78 75 78 83 85 90 85 85 82 72 67 74 85 86 84 68 56 62 66 64 66 69 74 82 86 80 76 74 78 78 82
65 75 78 79 88 91 95 89 85 88 79 79 77 84 85 76 70 67 69 70 72 70 71 81 83 81 78 76 76 78 80 81
70 80 80 81 86 88 93 91 88 93 89 86 82 80 75 72 66 72 71 72 73 69 71 77 82 79 81 78 81 85 86 85
62 66 76 78 83 86 88 91 90 93 91 89 85 79 73 66 58 59 62 55 67 69 62 65 76 76 78 81 85 86 89 91
66 63 72 79 84 84 88 88 86 94 92 93 88 86 81 72 70 62 60 58 58 64 61 64 75 73 77 85 86 85 89 92
77 76 78 80 81 80 90 88 83 86 90 88 86 84 80 79 69 68 59 62 63 62 63 63 65 67 71 80 86 87 89 90
88 85 85 84 85 91 91 91 87 86 88 90 91 86 83 75 66 63 59 60 58 60 61 63 63 64 65 68 74 74 73 74
90 91 91 93 91 93 91 88 81 87 88 87 87 84 73 65 64 57 58 58 61 59 61 60 61 64 67 71 72 68 75 78
89 90 93 92 88 86 87 87 84 82 84 87 84 76 67 59 56 58 60 60 61 60 60 61 62 64 66 73 75 75 78 80
87 90 90 88 84 87 88 90 86 84 84 80 82 79 68 62 59 68 67 62 62 61 61 62 63 62 67 69 71 77 79 80
79 82 88 88 89 87 86 90 90 86 83 80 80 79 74 73 70 65 67 66 60 60 63 63 71 78 61 71 74 77 79 81
64 65 65 68 79 89 89 88 83 81 81 79 78 78 74 78 77 70 72 65 63 64 68 84 90 66 72 77 79 80 77 79
59 61 65 74 82 81 87 89 83 81 80 77 79 82 81 78 68 68 70 74 79 88 90 88 79 75 76 81 84 89 83 75
64 66 70 78 91 91 87 82 82 81 83 83 80 77 76 70 72 75 83 87 92 94 92 84 78 70 79 82 85 92 84 78

GFSFLT1_sfc_rhum_027.txt.gz
RH
64 66 64 63 66 69 69 72 77 81 72 74 81 76 73 82 78 61 60 52 55 57 57 60 52 49 50 46 51 52 48 43
62 65 65 66 72 71 70 74 78 76 73 74 79 77 78 77 68 65 64 55 55 58 54 56 52 49 50 53 50 53 49 50
67 66 69 71 69 71 71 71 74 73 65 68 70 70 70 75 62 63 59 60 55 57 57 52 52 50 57 57 56 53 49 52
69 71 70 69 72 76 72 68 70 71 69 66 67 76 64 58 56 58 57 58 53 52 56 52 51 45 45 54 56 56 50 52
61 67 68 70 72 73 71 71 71 71 70 65 66 69 65 55 55 54 52 55 51 41 44 49 51 49 53 55 54 56 54 51
60 62 60 62 67 73 74 71 70 68 66 64 64 70 71 63 62 61 55 52 48 43 49 54 55 53 60 64 68 61 57 65
54 56 59 61 68 73 79 73 69 69 69 69 69 74 70 62 56 53 51 48 49 52 49 55 58 58 68 81 74 67 60 51
52 56 61 62 72 75 76 73 70 74 76 72 74 74 74 65 63 67 67 62 60 60 59 60 56 63 66 63 66 62 58 53
47 49 56 62 69 69 71 73 71 74 76 73 73 74 81 75 70 66 65 63 62 59 58 55 63 73 64 62 62 58 63 61
47 46 52 60 66 70 74 72 69 73 75 74 75 77 77 78 76 72 71 66 57 64 54 54 74 72 72 67 60 63 65 65
52 51 52 58 62 64 73 69 68 70 72 77 80 85 83 81 77 70 66 62 55 56 54 71 66 68 64 68 68 64 66 65
50 53 54 56 61 65 72 70 66 69 76 82 85 85 82 77 74 70 70 66 66 60 64 56 61 60 54 57 57 60 64 61
54 58 62 66 66 66 69 71 72 75 81 81 82 82 79 78 75 75 72 71 63 58 58 56 50 52 52 52 56 50 56 55
56 67 71 71 74 76 74 75 73 77 77 74 75 77 76 75 72 72 68 60 61 56 50 48 51 51 50 58 61 58 58 56
59 68 71 70 70 70 71 74 71 68 68 70 75 75 72 69 64 59 61 61 61 52 50 47 54 53 56 74 68 58 61 57
59 64 69 68 68 70 67 69 70 69 68 67 70 71 66 60 61 67 67 65 61 59 66 64 73 79 83 86 69 59 59 59
54 56 56 58 58 64 70 69 71 70 69 68 66 67 62 65 68 73 72 66 64 53 65 81 83 81 91 88 75 59 58 59
53 58 65 70 69 69 68 70 69 70 69 67 66 65 64 70 71 70 70 66 71 79 85 88 87 85 86 82 83 59 60 60
56 56 60 62 61 64 65 64 65 65 66 67 66 65 64 63 65 77 83 86 91 91 89 80 82 76 83 86 83 62 60 59

GFSFLT1_sfc_rhum_033.txt.gz
RH
39 40 42 43 50 51 52 56 58 57 58 54 40 36 40 40 53 51 51 44 47 50 42 47 46 40 39 37 39 31 30 29
40 41 40 42 46 47 46 48 50 50 57 47 38 39 41 48 58 54 51 46 47 51 43 49 48 41 40 43 38 39 32 32
34 41 39 42 44 45 44 44 45 45 41 38 35 36 36 42 63 53 49 51 46 49 49 49 48 39 44 46 40 35 31 36
31 35 40 43 43 43 40 41 42 44 41 36 32 34 39 40 50 56 55 54 48 46 50 48 48 42 46 48 44 40 35 39
26 31 35 39 41 42 41 39 38 39 41 37 39 38 40 43 49 50 55 59 55 45 46 50 49 44 46 45 37 38 41 41
25 28 30 32 37 40 43 39 37 38 42 44 40 45 43 41 47 58 63 55 56 49 47 53 52 47 45 47 41 44 52 61
21 22 27 30 33 39 42 40 36 37 41 47 51 50 49 42 52 56 56 58 56 56 48 57 59 60 47 43 48 61 70 60
21 21 23 26 34 40 40 39 38 39 43 46 52 51 51 52 56 59 55 58 68 71 70 71 72 67 81 82 77 81 80 74
21 20 22 24 29 36 40 39 41 39 47 47 49 60 59 60 67 65 71 73 84 91 85 70 66 75 73 76 87 88 85 76
20 20 22 24 26 33 42 40 38 40 42 53 56 60 66 61 66 65 71 74 74 74 62 62 68 75 86 91 90 84 85 66
18 19 22 22 25 27 40 40 39 38 46 56 57 60 61 68 73 78 77 70 66 59 62 64 64 77 91 90 91 86 69 66
23 22 21 22 26 29 34 39 41 41 43 50 61 66 75 73 78 78 74 70 62 57 64 66 71 82 86 85 83 64 57 53
23 26 27 27 28 30 33 38 41 42 44 48 64 81 84 82 83 78 79 76 68 67 60 64 75 80 77 75 73 55 50 59
23 29 32 32 34 36 37 41 41 40 41 43 55 79 84 87 88 88 86 80 77 70 70 76 79 78 71 72 58 48 67 77
19 28 33 34 38 41 42 46 43 42 45 49 54 66 76 78 79 77 77 73 74 74 76 78 79 67 57 54 64 72 79 80
26 29 35 41 45 46 45 52 52 50 50 51 59 61 59 60 67 69 72 74 68 68 72 70 71 61 58 64 78 82 81 80
33 36 39 44 45 46 50 52 51 49 48 50 52 53 52 55 56 57 60 60 59 58 60 56 67 64 97 95 82 70 79 80
35 35 37 38 39 42 46 45 45 47 48 49 51 51 54 56 52 51 52 54 56 63 69 74 76 80 97 96 93 78 83 85
36 36 37 37 38 39 41 39 42 44 46 48 50 51 51 49 49 51 56 58 60 62 60 56 57 58 91 92 91 90 93 89

GFSFLT1_sfc_rhum_036.txt.gz
RH
49 54 56 58 53 50 49 52 56 60 56 47 55 55 63 64 67 69 72 66 67 72 68 70 65 67 66 62 61 52 57 54
49 51 59 59 58 56 56 61 61 58 63 64 64 57 55 56 78 67 75 68 66 72 71 73 70 69 66 67 62 56 55 52
47 50 53 62 61 60 63 64 62 57 60 63 59 53 51 53 73 72 82 80 62 69 74 70 72 70 69 70 64 66 62 61
44 48 52 54 62 61 56 58 62 63 61 57 52 52 52 49 69 74 72 68 63 64 72 73 76 74 75 75 69 65 64 66
38 44 48 52 55 55 50 48 49 51 53 49 52 46 46 51 65 67 66 72 71 67 67 72 74 70 72 75 66 65 64 70
32 37 42 45 49 53 52 48 47 48 52 55 54 52 50 50 64 68 73 78 76 79 71 74 72 71 67 65 62 61 64 76
28 31 34 40 45 51 54 50 46 46 51 54 62 66 59 60 66 70 75 76 77 79 71 76 79 85 91 91 88 70 78 81
28 29 31 35 42 50 52 51 49 48 52 56 58 63 62 64 66 74 76 80 80 85 78 81 85 91 92 93 86 86 89 89
27 25 31 33 39 45 48 46 48 45 50 54 59 58 63 72 74 85 85 85 83 84 84 86 90 89 84 82 87 93 93 96
25 24 25 32 38 44 50 45 44 44 48 53 58 68 80 92 88 85 91 88 80 85 90 90 84 82 82 88 91 94 96 96
24 24 26 28 31 37 49 47 43 44 48 55 62 82 81 86 81 85 92 88 82 89 88 82 80 81 86 88 93 93 95 91
26 27 27 28 29 28 44 46 44 45 46 58 73 83 88 84 79 92 90 86 87 82 78 80 77 77 84 86 89 90 90 84
25 29 30 30 32 34 43 45 44 47 55 76 79 79 82 89 92 88 89 86 84 75 74 73 74 83 85 88 90 80 83 83
25 30 34 34 35 38 40 49 49 49 51 68 81 87 93 90 92 93 94 93 90 84 78 79 84 84 84 83 84 87 84 83
20 30 36 38 41 44 46 52 53 53 53 83 85 88 88 93 94 92 86 82 82 85 85 83 85 85 80 79 84 85 88 87
22 31 38 41 48 50 50 59 62 62 62 66 80 84 84 86 90 87 84 81 80 80 84 85 84 80 78 77 82 90 86 82
24 28 39 44 49 52 58 61 62 62 63 65 65 69 65 75 78 82 85 82 77 79 81 81 81 68 84 91 87 82 76 84
33 39 46 50 53 57 59 57 55 57 59 59 60 61 64 68 64 65 69 74 74 75 76 78 86 90 94 94 90 87 88 90
39 42 44 46 47 49 52 49 54 54 55 56 57 60 59 58 59 63 71 72 78 79 77 76 78 75 94 93 94 91 94 92

GFSFLT1_sfc_rhum_039.txt.gz
RH
78 82 77 75 80 79 79 79 74 71 66 64 64 68 63 58 73 86 74 75 75 80 77 76 70 69 71 70 65 64 59 54
71 74 72 71 73 74 78 77 72 66 59 63 66 66 69 76 80 80 84 78 82 87 83 78 67 73 72 67 70 55 57 59
68 70 71 69 62 59 62 62 60 61 53 50 56 74 70 70 74 86 84 85 84 84 86 78 75 76 78 76 64 68 62 63
64 72 72 65 62 58 51 51 60 54 55 52 67 82 68 72 84 84 83 82 67 82 84 81 80 81 84 81 71 62 66 74
58 66 74 67 65 63 61 62 67 59 59 64 71 70 64 56 76 84 86 84 84 81 84 80 79 82 82 78 67 66 68 66
55 58 65 66 61 64 65 66 66 60 60 64 70 67 62 57 76 80 77 86 79 84 89 89 85 83 80 75 73 75 87 92
51 50 53 60 63 62 62 62 64 63 64 67 65 72 63 61 65 85 85 84 89 91 83 90 89 85 86 87 86 88 93 87
46 49 51 54 58 61 59 57 56 55 57 59 60 68 71 61 68 88 91 94 97 94 92 93 88 88 88 86 93 93 90 92
37 43 46 48 52 55 58 57 56 53 55 57 57 65 64 60 81 93 94 92 93 96 90 90 89 94 96 95 95 94 92 93
34 36 40 43 48 51 55 55 53 52 57 57 60 61 69 86 86 89 89 91 95 95 92 91 96 96 95 94 93 92 92 94
34 34 36 37 39 44 51 50 52 51 52 57 63 71 70 84 83 90 93 96 94 96 97 96 96 95 93 89 90 92 92 96
36 44 40 36 34 38 48 50 67 67 68 61 64 80 79 76 90 96 97 96 93 94 95 95 91 92 90 86 89 92 90 93
32 35 37 40 45 41 47 52 66 70 70 69 77 93 95 98 97 98 98 92 91 92 92 89 85 85 88 88 90 87 89 92
39 39 40 41 44 53 54 62 70 69 69 65 97 96 92 97 98 97 94 94 92 84 82 83 81 88 88 89 86 89 91 90
41 45 45 46 51 60 68 74 77 82 87 94 97 97 96 97 96 96 96 93 94 95 86 84 87 89 85 84 87 91 92 91
39 48 52 58 66 72 75 81 81 85 91 95 97 97 96 97 94 90 86 87 88 87 89 90 89 87 85 88 91 93 88 89
29 49 56 60 66 77 75 78 80 81 87 90 91 90 92 92 90 89 87 85 83 85 88 91 93 83 95 92 89 87 80 81
38 55 60 67 73 75 78 77 72 74 76 75 77 79 80 83 86 85 83 84 89 92 93 92 93 90 92 92 90 90 93 92
60 67 72 74 71 70 70 67 71 72 72 72 73 72 73 73 75 79 85 88 90 92 92 94 94 92 92 90 92 93 94 93

GFSFLT1_sfc_rhum_042.txt.gz
RH
86 80 82 83 84 78 78 76 77 76 78 80 80 75 63 57 68 78 77 80 78 85 81 82 79 75 74 70 67 72 65 62
87 88 83 82 87 82 80 81 82 79 73 78 78 78 77 76 75 76 86 80 84 87 86 87 79 67 68 70 72 64 68 67
87 92 86 85 88 85 81 80 80 74 72 71 72 69 76 76 72 81 87 89 87 87 88 86 76 76 78 77 70 70 64 69
83 87 86 83 85 84 81 78 75 70 66 63 70 75 82 77 72 74 80 89 87 86 89 85 78 75 79 80 72 64 67 75
77 79 84 81 77 74 72 74 70 67 63 59 59 60 64 62 66 66 85 89 86 84 88 85 81 81 86 86 74 70 66 68
76 77 77 73 65 64 61 65 60 59 61 58 58 59 59 76 75 71 79 90 83 80 87 91 86 87 92 91 83 77 85 88
67 70 70 68 62 58 57 55 54 62 58 61 63 69 72 77 75 72 72 80 90 91 89 92 91 92 94 92 90 86 91 88
64 70 74 67 64 62 60 59 61 63 66 63 63 69 79 72 68 75 80 93 97 95 92 95 95 92 93 93 89 90 93 90
59 61 68 69 63 62 63 63 65 63 66 64 63 68 70 74 68 75 86 85 87 94 95 93 93 92 92 91 89 91 91 94
53 54 58 63 67 65 63 63 64 63 64 64 65 67 73 76 77 83 86 85 88 95 95 97 96 95 94 94 95 92 92 93
42 49 53 55 57 62 64 61 61 60 61 63 64 67 69 74 80 86 93 98 97 97 98 97 96 96 96 95 95 93 91 94
40 41 46 48 50 56 65 64 65 65 69 67 66 70 71 80 91 92 97 97 98 98 97 96 96 95 94 91 91 92 90 93
36 41 42 45 46 48 54 61 65 65 66 71 82 91 95 96 98 98 99 98 98 97 96 96 91 90 91 90 92 91 91 90
40 45 44 48 46 42 45 55 60 62 76 83 93 92 95 92 96 96 97 96 97 94 95 94 93 92 92 91 90 91 89 90
41 46 47 51 57 65 48 54 60 64 78 81 81 91 91 89 89 96 97 96 96 96 94 92 91 92 88 88 88 90 92 92
45 48 51 63 77 86 85 57 63 70 76 79 74 90 91 95 98 97 96 96 96 94 96 95 92 90 88 90 90 93 93 94
37 48 55 71 81 86 90 95 97 92 92 91 94 96 96 96 94 93 93 94 94 93 94 93 94 89 97 96 92 91 88 89
32 50 58 71 80 81 91 93 93 95 96 95 96 96 97 95 93 92 92 90 89 92 95 95 94 94 96 96 94 90 89 93
47 56 74 87 90 86 84 83 86 88 91 93 93 94 95 94 93 94 94 90 91 96 96 95 93 91 95 93 93 94 95 95

GFSFLT1_sfc_rhum_048.txt.gz
RH
77 93 92 87 90 90 94 91 94 95 94 91 90 87 69 74 79 83 79 78 81 84 83 84 82 82 85 78 76 75 69 64
78 82 87 89 90 90 90 94 94 94 96 93 87 89 77 69 73 78 86 81 87 91 91 93 91 87 86 83 78 74 75 71
92 77 88 89 89 88 89 88 94 92 94 93 80 84 74 68 70 78 85 85 85 91 94 95 94 93 88 85 78 79 74 71
92 85 84 89 89 85 84 82 83 86 83 81 76 74 74 74 74 78 79 83 84 90 91 93 94 90 89 87 81 74 76 79
96 87 83 88 88 82 80 79 80 75 70 72 70 67 64 62 65 70 72 78 84 90 93 94 94 93 91 87 82 78 77 77
94 96 90 85 90 93 92 84 79 74 75 73 78 74 68 71 79 77 78 87 85 90 93 94 95 95 93 93 92 88 88 90
81 87 92 97 97 97 96 90 86 80 79 80 80 77 76 76 79 79 78 88 94 92 93 95 96 96 95 94 94 93 92 92
82 92 95 97 98 97 96 92 88 82 81 79 78 76 78 72 70 72 75 88 91 93 95 96 97 96 96 96 97 96 95 92
76 83 85 90 91 93 90 89 87 83 81 79 76 74 74 73 73 77 88 90 93 91 94 95 94 94 96 97 98 97 97 96
73 75 80 83 85 85 86 83 82 80 80 78 77 75 74 75 79 87 93 94 93 92 93 94 95 96 96 98 98 99 99 98
71 73 74 76 77 77 79 76 75 74 75 74 74 76 78 79 88 88 91 92 92 92 94 96 96 96 97 98 97 96 97 97
67 70 70 70 72 73 75 74 72 73 74 76 76 78 77 85 82 85 90 90 89 91 93 95 97 98 98 98 99 99 98 98
58 64 68 72 74 72 72 73 69 68 69 71 76 75 78 79 78 76 77 76 89 88 91 95 95 96 98 98 99 98 98 98
59 64 69 68 71 73 70 70 69 66 67 72 77 77 80 83 80 77 75 88 86 89 89 94 96 98 98 98 97 96 96 94
50 61 59 63 65 70 72 72 71 70 69 73 76 79 78 76 77 76 79 88 89 90 93 92 95 97 97 98 97 97 97 97
42 50 55 56 64 67 67 69 74 75 72 73 76 78 79 77 78 80 84 92 92 90 94 97 98 98 98 98 97 98 98 99
30 44 52 56 56 62 64 66 72 77 78 78 75 79 81 83 82 84 88 92 92 95 98 98 98 98 100 100 98 98 96 97
31 36 44 52 58 58 62 62 74 78 78 79 81 82 85 87 88 92 96 97 99 99 99 99 99 99 100 99 99 96 97 97
34 33 41 49 58 83 88 91 83 80 84 90 92 93 93 94 98 98 99 99 99 99 99 99 99 99 99 99 98 97 96 95

GFSFLT1_sfc_rhum_051.txt.gz
RH
68 75 77 79 79 86 96 97 96 92 94 95 95 88 79 86 85 76 68 57 60 60 54 59 54 56 56 52 52 49 45 42
68 72 78 79 82 90 94 96 97 95 97 94 90 91 79 79 71 68 68 59 61 66 58 63 58 56 59 62 56 55 52 50
74 74 78 85 82 81 91 92 94 93 94 92 85 80 75 70 75 80 68 67 64 68 68 67 66 65 67 70 64 57 51 51
82 78 76 79 85 84 85 89 90 88 89 96 91 80 73 66 70 79 71 72 60 63 72 74 82 76 64 70 67 63 56 56
75 77 76 75 76 77 77 80 87 84 88 92 84 72 71 63 61 71 72 71 72 68 69 75 77 75 76 73 67 64 61 59
71 73 69 70 72 75 77 75 76 80 81 83 80 73 64 65 63 71 69 66 64 66 70 74 75 76 77 78 80 77 72 67
63 67 69 70 71 78 77 74 73 71 76 74 76 72 63 61 67 66 60 60 68 70 66 73 74 79 81 81 81 80 78 73
60 71 76 77 82 84 81 76 73 72 71 72 72 70 68 67 64 64 64 70 72 72 71 75 75 75 77 80 83 83 82 81
58 65 71 77 84 86 84 80 75 72 73 72 69 68 65 64 64 60 67 68 67 69 74 72 71 73 75 79 82 83 83 86
54 61 67 72 76 79 82 76 71 71 73 72 72 70 68 68 68 70 70 70 67 71 72 72 74 75 77 80 84 84 87 89
52 59 66 67 69 69 76 72 69 68 70 72 70 72 70 69 71 74 71 71 71 70 71 72 73 76 79 82 85 85 89 95
50 55 60 62 64 66 72 71 69 70 72 74 74 74 73 73 74 72 70 70 70 70 69 71 73 74 78 85 84 85 98 96
40 52 58 62 64 64 66 68 67 69 70 72 78 76 74 77 77 73 73 73 74 72 71 70 70 73 77 89 91 97 98 98
37 49 57 59 61 64 63 67 65 64 64 70 75 77 80 78 75 73 71 71 72 69 72 75 73 79 82 88 89 97 98 94
26 42 52 54 58 61 62 64 65 63 61 66 70 73 72 73 72 71 72 68 69 69 74 75 78 80 84 90 91 90 90 88
28 34 41 50 56 61 60 60 64 63 60 61 65 67 66 65 70 71 72 72 70 69 73 75 76 81 93 94 95 96 92 94
27 30 35 48 53 56 58 62 65 64 63 64 60 64 64 69 67 70 72 73 72 76 77 79 89 95 100 100 98 96 92 97
30 29 32 39 44 52 54 57 62 69 66 63 63 66 68 71 69 67 69 73 74 82 87 91 97 98 100 100 100 98 98 98
32 30 30 33 41 44 49 47 59 67 68 68 68 70 70 70 73 75 78 83 90 97 99 99 99 99 100 100 100 98 98 96

GFSFLT1_sfc_rhum_054.txt.gz
RH
45 59 57 66 74 92 87 86 88 88 90 94 94 95 94 94 80 59 53 46 50 44 38 44 43 38 40 39 40 36 34 32
44 53 65 68 74 87 94 92 92 93 94 94 94 93 88 86 76 64 64 52 50 46 38 46 43 42 43 49 44 44 37 36
47 53 58 73 67 79 89 91 88 89 90 91 89 87 76 73 68 64 62 63 48 47 44 45 44 41 52 55 53 47 40 40
47 53 55 62 64 76 86 88 91 87 90 90 92 94 92 81 72 59 60 58 46 44 50 47 49 45 49 58 57 55 48 49
40 49 53 55 57 62 74 86 87 89 91 88 90 88 87 77 72 55 50 57 55 46 49 53 55 50 51 53 52 56 55 50
40 45 46 49 52 59 66 76 82 85 85 84 87 83 76 73 70 71 66 60 55 50 52 58 60 57 61 62 62 64 55 66
37 41 44 46 49 55 63 71 76 82 84 81 82 79 71 67 74 73 78 74 67 64 56 64 67 64 63 70 67 68 66 61
37 41 44 46 52 56 58 63 72 79 82 78 75 74 69 65 63 62 61 71 73 72 67 61 60 63 60 59 67 67 68 67
34 37 43 46 51 54 59 56 57 65 76 75 66 64 59 58 55 51 51 50 52 63 59 57 57 55 57 58 56 59 62 67
31 33 40 45 49 56 63 56 51 52 62 68 69 64 62 57 55 54 51 50 45 54 56 56 54 54 56 59 58 59 60 66
24 31 38 43 46 50 63 57 49 48 53 58 58 62 61 58 58 59 57 56 57 57 62 63 59 58 59 60 60 59 59 63
24 30 35 40 43 48 56 57 51 49 53 56 59 60 60 60 61 60 59 59 58 58 57 59 58 58 57 58 61 60 63 67
20 30 36 40 44 45 48 52 50 50 50 56 63 61 60 62 64 62 64 63 60 59 57 56 54 52 52 56 60 60 61 66
18 26 34 38 41 45 45 50 50 48 49 54 60 65 65 65 64 63 59 60 59 57 54 56 54 53 53 62 68 63 65 66
16 18 27 34 38 42 44 46 50 48 47 52 57 61 62 64 63 61 62 58 59 57 56 55 56 52 56 57 60 67 67 68
18 18 18 24 34 40 41 43 47 49 48 49 54 58 57 56 58 59 59 61 58 56 56 55 56 56 56 59 61 68 72 84
18 17 18 21 27 35 38 42 45 48 50 50 48 53 54 58 55 57 59 60 57 57 57 57 60 59 85 98 89 85 84 91
22 21 21 22 24 36 39 39 42 47 50 48 48 50 53 55 54 54 56 59 58 60 59 59 61 62 100 100 100 87 96 97
38 31 26 20 20 23 28 28 38 44 48 48 47 50 51 51 53 55 57 58 62 66 68 72 77 75 100 100 100 99 99 99

GFSFLT1_sfc_rhum_057.txt.gz
RH
32 37 38 47 66 80 78 80 91 90 92 96 96 97 97 95 77 60 56 48 51 54 50 57 48 36 35 35 43 36 35 33
30 41 42 49 60 80 83 87 89 89 93 95 97 96 96 94 86 58 61 51 50 58 52 61 58 44 42 46 40 41 35 34
33 42 47 52 60 76 86 82 89 84 85 82 81 89 92 88 82 76 57 56 48 52 54 54 58 46 50 53 52 43 35 34
34 40 48 54 58 71 86 84 83 80 82 80 84 83 88 90 82 74 68 63 50 52 56 54 57 50 51 58 56 53 44 42
29 37 44 52 53 60 76 84 79 77 83 87 87 86 83 75 73 65 48 60 60 55 48 51 54 49 52 59 52 56 53 50
27 33 38 42 46 60 65 85 83 79 77 83 86 78 71 69 73 71 60 64 78 62 50 54 55 52 56 57 62 65 57 56
25 29 34 39 43 52 67 76 86 85 80 81 83 83 81 77 76 79 61 61 67 69 50 56 61 64 66 62 67 66 66 60
25 29 33 37 44 49 58 66 75 85 86 83 80 73 80 74 71 70 71 74 74 69 63 61 62 67 70 73 76 74 72 72
24 27 33 35 43 47 50 55 58 76 83 82 74 69 69 62 67 61 62 68 69 71 63 60 62 63 64 66 67 68 72 73
22 24 30 35 40 47 49 47 48 57 78 81 79 75 71 63 62 60 58 59 53 63 66 65 63 63 64 65 65 66 65 68
18 22 26 32 36 40 49 44 42 46 55 70 74 74 71 63 61 60 60 58 56 57 63 62 62 62 62 63 63 62 63 64
16 18 21 28 33 37 46 47 41 41 49 58 66 68 71 68 66 61 58 58 55 52 51 55 55 55 57 59 60 60 61 61
15 18 23 27 32 35 41 47 44 41 42 51 60 63 63 67 67 63 63 60 56 53 50 49 50 51 53 56 59 55 60 62
14 16 23 28 31 34 38 45 46 42 40 46 56 59 60 62 63 62 60 60 59 56 52 54 52 54 54 55 56 57 59 59
14 14 15 23 29 32 35 38 45 44 40 44 51 57 57 58 59 60 61 59 59 58 57 55 56 54 52 52 51 54 56 60
20 19 17 16 21 29 31 34 38 43 42 42 47 55 55 55 58 59 59 61 57 55 58 58 58 56 52 56 53 57 64 69
28 28 24 21 19 18 26 32 36 39 44 45 43 49 52 56 56 59 61 61 58 58 58 59 61 52 67 78 71 62 66 71
35 34 33 30 26 23 22 25 32 36 41 44 43 46 50 54 54 53 56 60 59 59 60 60 61 59 80 90 92 65 69 74
36 35 36 34 31 27 26 19 24 31 36 40 42 45 47 49 52 53 57 58 61 62 61 61 62 60 87 97 100 81 80 88

GFSFLT1_sfc_rhum_060.txt.gz
RH
31 34 40 62 72 73 82 87 91 93 96 98 98 99 96 93 91 85 84 67 65 75 64 69 65 61 62 62 61 61 60 59
33 39 44 69 76 78 81 87 92 94 97 98 98 98 97 94 92 78 70 64 64 65 66 65 63 59 57 61 62 62 64 60
34 44 46 57 79 82 81 83 89 89 91 87 91 93 96 92 92 68 65 65 60 62 66 66 66 68 65 65 59 64 61 62
36 45 51 57 70 82 87 82 84 84 86 87 92 92 94 94 94 78 62 63 55 56 68 69 71 73 71 70 68 67 65 66
34 42 52 56 64 78 86 82 83 82 82 85 90 90 91 74 84 82 63 70 61 55 60 66 72 71 73 75 69 74 74 68
32 40 46 52 57 71 83 83 82 80 80 80 82 83 76 68 78 82 72 72 76 62 65 72 70 66 67 76 79 77 77 85
27 36 41 49 54 70 81 85 81 80 80 80 82 81 79 70 75 74 71 68 78 79 64 70 73 76 72 78 82 82 78 83
27 35 39 46 54 66 70 83 86 82 83 81 81 79 77 73 73 71 67 66 68 84 78 76 73 71 76 81 85 85 86 85
24 30 38 43 52 64 67 71 78 84 82 82 80 76 76 73 70 68 68 63 64 68 77 72 73 70 71 80 85 83 80 86
24 28 36 41 49 56 66 64 68 78 77 80 80 79 77 77 74 68 67 65 63 75 74 75 70 69 73 79 82 82 85 80
24 26 35 38 45 50 60 58 58 71 80 82 80 79 76 75 74 75 71 68 67 67 76 76 72 69 73 77 82 78 78 78
20 24 27 36 40 45 55 54 53 57 77 80 80 77 73 76 74 73 72 70 67 67 66 69 71 74 74 74 75 73 76 76
20 21 27 31 39 42 51 53 50 51 60 76 81 80 76 78 77 72 70 69 67 65 63 63 66 67 68 70 73 67 72 74
18 19 27 30 36 40 42 52 52 49 48 62 76 79 80 80 77 72 69 67 67 65 61 60 59 63 64 64 65 66 67 66
25 28 30 30 33 39 40 47 54 53 46 50 64 72 74 74 74 74 72 69 67 65 64 62 60 56 56 57 57 62 64 63
31 35 36 34 34 34 36 41 48 52 54 48 51 61 65 68 71 70 70 70 68 66 66 64 62 60 55 58 58 63 66 67
35 35 35 38 38 36 36 35 42 47 53 52 49 52 57 63 64 68 70 71 69 69 69 69 69 61 70 79 73 68 66 67
39 39 41 42 43 43 42 39 35 39 48 50 50 51 53 59 62 63 66 69 70 71 70 70 71 70 82 84 85 67 70 73
39 40 42 44 47 51 53 46 43 34 33 43 48 51 52 52 59 63 66 67 71 72 72 73 73 69 93 88 91 76 74 75

GFSFLT1_sfc_rhum_063.txt.gz
RH
43 61 83 88 95 93 91 96 97 97 97 98 98 98 97 94 90 82 84 74 78 85 82 86 80 77 72 61 59 66 64 65
43 59 80 89 93 93 91 95 98 97 98 98 99 98 98 97 91 79 81 74 73 73 70 74 77 81 62 56 65 63 69 69
45 75 81 90 92 94 89 91 95 94 92 93 93 96 96 93 92 88 76 74 66 70 69 74 71 77 76 66 64 68 65 70
50 63 91 95 94 94 88 89 92 91 91 93 93 94 96 96 93 86 73 71 61 62 64 70 70 70 71 67 64 60 63 66
50 54 74 96 95 94 84 86 89 88 89 91 92 91 93 84 82 72 66 70 67 64 64 66 69 78 79 72 61 68 68 66
53 57 59 79 92 96 92 86 86 85 84 86 84 83 78 80 86 86 75 74 71 65 73 72 77 79 83 80 76 62 79 83
49 56 57 71 90 96 95 90 87 85 85 84 86 83 83 79 94 95 85 76 72 73 69 76 75 76 79 88 85 73 74 85
49 59 64 64 89 96 94 91 89 85 85 85 86 83 80 76 84 84 80 81 83 85 76 83 87 76 76 82 88 85 83 86
48 53 60 63 79 91 88 91 84 85 85 88 84 81 82 73 72 76 75 73 73 74 79 72 83 83 85 86 87 82 82 89
46 48 54 61 69 86 89 88 81 80 85 85 85 78 76 78 70 68 69 64 63 77 79 78 75 73 81 82 85 87 91 91
44 46 50 56 65 74 82 83 80 79 80 82 81 80 77 76 78 74 68 66 62 61 79 83 78 75 79 82 81 83 90 89
31 43 46 51 58 74 74 76 78 82 81 79 82 82 80 77 80 77 74 70 65 64 73 80 81 80 72 76 78 77 83 79
37 37 40 53 56 63 70 69 72 79 81 81 84 81 80 82 80 76 76 75 71 67 64 72 76 75 75 73 75 75 84 84
40 39 41 45 59 66 63 66 66 64 81 85 88 85 79 79 78 77 70 76 76 73 70 66 66 69 71 77 76 76 77 80
41 44 45 47 53 57 63 68 68 64 71 83 86 86 81 80 76 74 77 74 78 75 73 72 70 67 67 65 66 75 77 76
44 48 49 48 49 51 52 57 64 74 68 68 81 84 82 81 80 76 76 77 75 72 74 72 71 68 63 70 69 70 72 72
45 45 48 54 61 66 65 63 63 58 70 66 62 74 81 82 82 82 81 79 77 76 73 73 74 66 73 79 71 68 66 70
50 51 57 64 68 67 70 67 64 62 62 60 64 61 68 76 77 79 80 81 80 79 77 77 73 72 86 87 82 63 68 72
54 57 65 69 70 72 72 70 69 69 75 74 75 79 68 61 70 74 76 77 80 80 79 78 78 75 93 95 94 79 72 71

GFSFLT1_sfc_rhum_066.txt.gz
RH
54 83 91 96 97 95 95 98 98 96 98 97 98 97 97 96 93 82 85 76 81 84 73 83 67 66 65 70 76 72 66 72
64 89 95 97 98 97 97 97 98 97 98 98 99 98 98 96 94 82 84 77 81 86 74 77 75 80 70 67 70 64 72 74
75 94 97 97 96 95 96 96 97 97 96 94 96 96 97 94 95 92 83 83 76 80 82 78 81 84 86 69 66 75 69 69
74 92 96 96 97 97 95 95 95 93 92 95 98 96 98 99 98 97 93 87 72 66 76 73 78 82 78 73 69 62 66 75
65 86 97 96 97 95 95 94 91 90 92 92 94 90 96 91 92 91 93 85 77 68 71 72 77 78 84 75 66 67 67 63
60 83 91 92 96 97 96 94 90 89 92 88 92 93 88 88 89 90 93 92 78 66 69 76 75 82 85 85 76 71 67 78
50 68 86 94 96 97 97 95 90 89 90 91 86 87 84 86 90 90 91 79 77 76 62 71 77 81 82 82 76 67 66 68
56 69 92 96 93 96 96 95 94 90 88 89 85 84 84 86 90 82 81 76 74 80 73 76 76 74 78 86 87 79 76 83
62 64 77 94 93 96 95 95 94 94 88 86 85 83 85 83 86 83 86 77 69 69 72 71 73 72 76 78 92 89 84 90
62 64 65 90 95 95 93 95 93 92 91 85 88 90 86 82 83 86 81 87 75 78 73 75 79 85 82 82 81 86 89 83
57 64 67 72 87 89 89 89 89 90 90 88 84 84 83 83 80 81 81 80 81 82 83 79 79 78 84 90 91 89 87 85
58 61 65 67 82 89 91 88 84 88 91 89 86 83 81 79 78 77 75 77 76 76 84 80 78 78 80 82 85 85 88 82
50 62 67 68 80 85 92 91 86 83 86 88 89 86 82 84 83 80 78 75 75 70 72 82 82 78 76 78 74 70 82 83
51 52 55 60 70 85 84 85 88 86 85 86 89 89 88 85 82 80 80 78 76 75 68 68 72 81 81 79 76 74 73 80
55 59 65 67 68 71 69 74 77 80 86 87 88 87 86 85 81 80 80 78 78 75 75 72 69 64 68 74 75 78 74 73
58 65 69 68 68 68 68 71 72 70 79 87 90 89 87 84 84 81 80 81 75 73 76 76 74 72 65 67 67 70 73 76
61 63 65 66 69 73 72 73 74 73 77 78 77 85 88 89 84 86 84 81 82 77 77 78 81 76 82 85 77 73 71 72
66 69 67 64 67 68 76 73 72 73 75 74 77 77 81 83 86 86 87 85 82 82 79 79 75 77 88 89 89 74 75 78
70 70 67 68 67 68 69 68 70 73 76 75 77 79 79 80 79 81 86 87 88 86 86 84 82 78 88 92 92 80 76 75

GFSFLT1_sfc_rhum_072.txt.gz
RH
62 92 96 96 98 99 91 94 95 96 98 99 99 99 99 99 98 99 93 96 94 95 91 90 78 77 78 71 73 81 82 82
82 96 97 98 98 99 92 96 98 98 98 97 99 99 99 99 98 99 95 96 94 87 84 82 75 74 72 72 70 72 90 84
95 96 98 97 97 98 89 87 98 98 97 92 97 97 99 97 98 98 98 96 92 89 84 76 73 70 78 72 71 82 85 81
96 98 96 93 96 93 90 87 94 96 94 97 98 99 99 99 99 99 96 96 93 91 89 76 73 66 74 77 82 79 88 90
91 94 93 87 90 88 90 88 85 94 95 94 94 93 97 97 98 96 97 93 92 90 89 86 73 71 78 73 75 79 80 81
92 92 89 82 84 88 98 91 88 92 94 93 96 96 92 95 97 97 97 97 95 92 90 91 81 80 85 82 82 78 79 81
82 90 89 84 82 89 95 85 84 90 91 93 94 93 93 98 99 98 98 98 97 95 96 92 90 90 89 89 86 76 78 80
85 97 89 83 86 89 87 88 90 90 95 94 93 92 90 94 94 95 97 98 98 96 94 96 94 87 90 91 89 87 84 85
76 93 92 83 86 85 90 88 86 97 98 98 94 96 96 89 92 93 94 92 91 91 93 94 94 91 91 92 91 94 94 94
67 92 92 85 86 85 85 86 82 83 97 97 98 97 96 91 92 92 93 90 86 90 92 96 94 94 94 94 95 93 94 93
84 95 89 84 81 81 84 83 82 80 84 97 96 96 96 96 93 91 92 90 86 86 86 89 93 94 96 95 94 92 94 95
90 94 82 84 81 88 89 85 82 83 85 85 96 97 96 96 96 96 90 90 87 85 83 86 88 90 91 94 89 88 92 90
90 91 92 92 91 92 89 87 86 82 88 87 86 92 96 97 96 94 95 91 92 91 86 85 83 83 84 87 87 82 86 87
80 83 87 90 92 90 88 90 93 94 87 89 90 93 94 97 96 94 91 92 92 92 90 91 86 82 82 83 81 82 81 80
76 80 84 85 85 86 86 85 85 83 87 90 91 91 93 91 90 92 92 89 86 84 82 82 82 84 86 83 80 82 80 79
68 76 80 80 79 79 75 76 77 77 80 80 87 88 92 91 92 92 90 89 85 81 83 85 81 78 76 81 82 84 85 82
67 66 68 71 73 72 74 78 75 75 76 78 76 78 80 85 87 91 94 92 90 88 86 82 84 77 85 87 83 79 78 80
73 71 72 74 72 72 76 76 73 75 75 74 76 75 74 76 77 78 84 90 92 93 93 91 89 85 97 94 92 79 76 75
77 74 72 72 70 72 74 73 73 74 74 74 74 75 76 77 80 81 84 88 91 93 92 92 92 90 95 96 99 93 86 81

GFSFLT1_sfc_rhum_075.txt.gz
RH
38 56 60 64 70 79 87 88 89 90 92 93 96 98 97 96 95 97 93 98 92 95 94 93 94 80 63 59 66 63 61 60
31 60 68 70 78 89 85 90 91 93 90 97 99 98 98 98 97 91 94 94 95 96 94 92 89 78 65 69 64 69 66 62
42 70 71 73 80 88 84 85 89 89 78 89 93 95 96 94 92 98 93 94 97 94 94 91 83 73 72 68 68 67 64 66
38 72 73 72 82 87 83 81 85 83 86 85 95 95 95 98 98 99 96 96 96 93 94 87 80 72 73 70 68 68 69 70
28 63 74 74 75 80 80 78 80 84 88 90 95 88 96 95 94 97 98 93 95 94 89 84 76 70 73 71 63 68 72 77
40 64 64 68 75 80 82 78 80 86 85 84 86 83 74 88 93 96 96 98 93 91 91 87 79 69 74 76 73 68 65 68
42 61 66 69 74 81 86 84 83 88 85 84 90 90 88 89 95 90 97 98 98 95 92 92 86 80 82 81 78 70 68 69
57 68 70 72 77 86 88 81 85 88 88 90 91 89 89 90 93 93 97 97 98 98 96 95 92 88 82 82 84 81 75 73
57 66 70 73 76 84 82 83 84 86 88 90 88 87 88 87 90 90 89 93 91 95 96 94 92 92 91 88 88 85 85 85
45 67 72 73 75 85 81 82 83 85 86 83 84 87 87 86 87 82 89 89 88 90 93 97 94 92 92 92 92 88 87 88
65 73 78 71 77 82 84 78 74 78 82 82 79 78 82 83 84 89 91 92 90 88 86 91 96 96 95 95 92 89 90 92
78 74 78 78 82 86 84 79 74 74 76 81 83 83 80 79 83 86 87 90 90 90 88 92 92 91 91 95 95 93 92 85
88 86 88 90 91 88 85 82 77 75 76 78 78 84 84 83 82 79 79 81 85 85 86 87 86 83 80 85 87 92 94 94
85 86 90 92 92 91 91 90 90 87 84 84 85 81 82 82 82 78 77 76 75 77 78 80 81 76 75 85 82 81 82 84
83 84 86 87 85 85 84 88 86 86 86 87 91 90 88 88 84 81 79 75 74 73 73 72 72 70 74 76 76 79 76 72
78 81 82 82 82 84 81 79 78 76 78 80 86 88 88 90 91 90 88 84 77 73 74 74 72 72 75 79 77 80 79 76
71 72 72 73 75 74 72 74 76 69 71 73 73 73 76 82 84 88 88 90 93 91 91 88 88 83 97 99 95 80 77 76
70 71 72 69 70 70 69 66 64 68 75 66 68 69 72 75 74 77 83 88 88 91 92 91 95 89 94 94 95 88 88 83
79 74 69 68 68 67 66 64 64 66 64 66 68 68 69 69 72 74 79 83 90 91 89 86 88 81 92 93 94 87 90 92

GFSFLT1_sfc_rhum_078.txt.gz
RH
12 19 29 36 41 52 61 76 78 77 77 86 88 91 93 94 96 95 94 96 92 90 90 93 88 94 93 72 64 58 50 46
12 18 33 41 46 52 60 81 78 81 86 92 94 94 94 95 91 88 90 92 99 95 95 94 90 91 89 78 58 58 56 52
12 19 36 46 49 53 59 70 74 74 72 76 84 91 93 89 90 90 87 82 92 97 96 94 93 91 89 76 67 58 55 53
12 21 38 45 50 57 56 61 64 68 66 67 71 86 88 92 92 90 88 80 91 96 94 95 94 90 88 72 64 61 59 55
13 16 34 44 48 55 54 58 63 62 59 65 71 77 90 77 77 96 86 89 96 96 93 94 94 89 84 73 57 62 57 61
15 16 24 36 45 56 58 59 65 58 58 62 63 80 79 70 82 93 94 93 94 97 95 96 94 88 79 69 67 66 58 54
18 18 29 37 47 58 62 63 67 61 60 65 74 77 78 73 85 87 98 98 98 96 94 94 91 84 75 73 71 66 61 59
22 30 36 42 54 72 72 62 70 68 62 62 67 64 74 75 72 81 94 97 98 98 95 92 91 86 79 72 76 72 67 63
24 33 39 44 54 78 76 67 73 72 64 59 71 71 78 77 76 70 78 86 87 88 96 94 88 86 85 84 84 82 78 76
31 36 43 48 55 80 81 72 71 72 70 62 71 74 74 78 80 80 80 79 78 89 96 97 95 90 87 87 88 86 86 84
43 45 52 50 64 76 79 68 70 71 70 74 63 67 70 74 78 76 66 72 78 82 92 95 96 92 87 88 87 84 87 87
61 56 56 63 72 80 81 68 71 76 78 78 66 63 69 74 73 74 75 80 82 85 79 86 91 95 93 93 90 86 88 85
90 82 79 80 82 84 84 67 66 67 77 74 72 70 67 71 73 76 79 79 81 80 81 83 87 92 94 95 94 93 93 87
84 87 90 92 92 91 89 81 76 79 73 74 76 79 81 76 69 67 70 74 78 79 76 81 83 85 86 87 83 82 83 84
83 84 87 89 89 89 90 91 92 90 82 86 91 86 82 81 77 72 69 66 70 74 74 73 73 73 74 75 71 72 79 79
82 83 85 83 83 85 85 82 84 81 79 79 85 84 85 87 90 90 89 82 73 64 67 68 71 73 79 84 73 76 80 75
80 77 78 80 77 76 75 78 76 70 72 74 73 75 78 82 84 88 90 90 91 89 91 88 86 77 94 94 90 79 81 80
75 77 79 76 73 70 66 64 62 64 67 66 66 67 69 73 76 80 86 91 88 89 89 88 88 87 92 91 93 84 87 92
81 74 70 66 63 61 58 54 54 58 56 59 64 67 65 64 68 75 82 83 86 85 84 83 83 81 88 89 93 82 84 92

GFSFLT1_sfc_rhum_081.txt.gz
RH
8 10 12 17 24 35 47 58 61 61 64 74 68 84 86 90 85 83 78 83 87 87 90 95 91 96 97 96 91 66 51 52
9 11 14 22 28 38 48 59 60 59 61 69 72 76 73 83 84 85 91 86 84 87 95 95 93 92 95 94 91 70 66 57
10 11 16 29 33 40 48 56 59 58 54 58 61 71 69 68 75 81 84 86 87 98 95 95 90 93 95 96 92 80 62 57
11 11 17 32 35 44 47 54 57 58 54 57 63 81 73 78 78 81 77 76 76 85 96 95 94 93 93 89 92 78 70 66
12 10 16 30 35 42 45 51 54 56 56 61 72 73 73 65 66 71 73 74 80 89 96 94 94 94 92 89 88 85 69 63
12 11 11 23 34 43 47 49 51 53 54 52 56 56 59 59 62 77 88 84 92 97 96 96 96 95 93 91 89 82 69 63
12 10 10 20 31 44 50 50 50 51 52 52 56 56 60 62 69 81 94 93 95 98 98 97 95 94 94 91 87 76 69 63
18 14 13 19 33 47 50 49 54 51 53 54 54 56 65 74 70 78 94 98 97 98 98 98 98 96 92 89 87 77 73 68
26 18 18 25 35 48 50 49 58 52 53 54 53 53 57 57 61 64 78 88 92 96 96 96 95 95 93 90 79 73 75 74
41 22 28 31 42 65 64 50 67 58 53 52 53 59 61 63 66 72 79 76 82 88 95 96 95 94 94 93 92 82 78 80
63 30 34 36 56 70 76 63 71 62 54 51 60 60 61 66 69 71 71 74 72 81 90 93 95 93 89 91 90 89 88 90
77 73 46 54 68 74 81 73 72 71 69 58 65 69 63 66 69 67 67 72 75 81 84 92 96 95 93 90 85 88 88 86
84 88 86 76 81 82 80 74 72 74 67 67 70 68 68 67 68 63 65 69 74 81 82 81 91 94 94 95 94 88 85 82
82 86 89 91 92 92 93 82 78 79 75 76 74 73 73 71 71 70 71 72 79 80 83 81 79 84 90 91 90 89 86 87
83 85 88 88 90 89 90 93 92 85 83 86 87 80 70 67 67 71 79 77 78 80 78 80 80 80 81 87 90 92 90 87
85 86 86 84 85 87 86 87 86 84 84 85 89 88 87 88 90 85 83 86 87 83 82 87 81 78 79 84 81 89 87 83
85 83 83 83 79 81 82 85 81 80 80 83 81 82 84 88 90 92 90 89 87 86 89 86 85 78 93 92 87 76 76 84
86 88 84 84 78 74 84 82 78 78 78 74 74 77 80 83 85 86 90 91 89 90 89 85 86 86 92 91 93 80 88 89
87 88 78 74 74 73 72 75 79 75 69 72 70 70 73 78 81 83 85 86 88 88 88 85 85 83 90 92 95 90 88 84

GFSFLT1_sfc_rhum_084.txt.gz
RH
14 14 11 11 15 38 59 67 74 74 77 83 85 92 90 92 95 95 88 87 85 91 92 95 94 96 97 98 98 98 94 80
13 15 14 19 34 44 62 71 75 72 82 84 87 92 89 94 92 90 88 89 91 93 95 95 93 93 95 95 98 97 97 75
16 17 21 33 40 46 62 67 69 68 72 74 71 75 82 84 84 87 88 90 90 92 96 94 93 96 96 95 96 97 96 79
17 17 22 38 44 51 56 64 65 66 66 67 71 76 80 77 87 90 88 88 88 91 95 95 96 96 97 95 96 94 92 88
16 16 17 38 43 52 54 60 61 64 65 67 75 79 82 76 80 87 84 83 87 91 95 94 94 94 96 95 95 94 94 79
18 17 16 34 42 53 55 61 61 63 63 69 74 78 74 74 80 84 86 90 89 92 94 96 96 96 95 94 97 94 95 84
17 17 16 28 38 52 58 62 62 62 65 71 75 74 71 75 84 88 96 94 92 95 96 96 94 94 96 95 95 94 94 89
50 34 15 18 42 54 58 59 61 63 66 67 69 71 72 72 80 87 94 97 98 98 99 99 97 96 94 92 95 96 94 92
60 58 71 26 46 56 58 57 57 62 65 64 66 69 72 74 78 85 91 95 95 94 98 98 99 96 95 95 92 94 92 91
68 68 73 31 45 59 62 56 56 59 63 66 68 70 73 80 81 81 86 90 91 94 96 98 98 98 96 95 93 94 90 87
74 78 83 58 56 70 73 67 59 65 69 66 64 72 73 77 80 84 87 90 91 94 96 96 97 98 99 98 98 96 95 95
78 83 83 85 74 82 82 76 79 71 80 71 74 74 77 79 79 80 80 84 86 91 93 95 96 97 97 98 98 98 97 96
80 82 84 90 95 87 85 84 85 82 74 77 83 80 80 82 80 79 83 84 86 89 92 94 94 95 96 96 94 92 93 96
82 83 85 88 90 90 92 94 89 88 80 81 82 82 82 82 78 78 77 81 88 90 90 92 93 95 95 95 92 94 92 86
83 86 86 86 88 90 91 94 94 91 88 89 94 94 90 91 88 83 84 83 87 88 89 88 90 86 86 89 92 94 93 89
86 88 89 87 87 88 89 91 89 88 90 91 94 92 90 91 92 90 89 88 85 82 83 83 82 81 83 87 84 94 97 94
85 85 84 89 89 88 87 89 90 84 85 89 88 88 90 91 90 90 90 90 89 88 88 88 88 82 94 94 89 89 85 86
96 94 90 89 90 89 93 89 81 86 86 85 87 88 88 88 85 86 89 91 89 89 89 87 90 90 95 96 90 82 85 87
98 99 96 90 88 88 87 85 88 85 83 83 83 85 87 86 87 89 89 89 90 89 87 85 88 87 95 93 90 86 87 85

GFSFLT1_sfc_rhum_087.txt.gz
RH
13 14 16 14 14 56 71 76 86 91 93 96 97 89 98 98 98 97 90 93 92 96 97 98 99 98 98 98 97 97 97 97
18 19 15 17 16 66 74 81 89 90 92 96 97 92 96 100 99 96 94 94 95 98 98 97 97 98 96 96 97 97 98 97
18 19 21 19 41 72 77 80 84 89 88 88 97 97 92 98 98 96 91 95 97 98 97 96 97 96 97 96 96 99 98 97
14 19 23 29 56 72 79 81 80 87 86 87 91 95 98 98 98 97 94 94 97 96 96 96 96 94 96 97 95 93 96 97
18 20 23 51 68 72 76 78 78 82 82 84 86 90 96 96 93 92 98 96 95 96 96 96 94 94 96 96 94 95 95 93
23 20 19 45 58 72 75 80 78 75 79 81 87 94 94 94 96 96 97 97 96 96 97 96 96 96 95 95 97 96 94 92
65 62 65 56 59 67 72 78 76 74 77 81 84 92 91 94 96 98 99 98 98 98 97 96 95 96 96 96 94 93 96 92
72 78 80 79 81 68 74 77 78 75 82 78 82 85 87 92 94 97 98 98 98 97 98 98 98 95 95 95 96 94 96 94
78 80 84 86 78 73 73 79 79 78 81 78 79 84 81 89 90 94 96 94 91 94 98 98 97 95 98 96 97 95 94 97
80 78 80 90 76 74 80 77 75 78 78 80 79 80 83 92 95 94 93 92 93 97 98 99 98 98 97 96 96 95 95 95
78 80 85 89 94 94 95 80 79 77 78 76 79 80 86 90 89 93 97 96 91 97 98 98 99 99 98 96 95 96 94 96
81 82 84 87 90 93 96 94 89 80 83 81 81 80 83 85 89 92 93 95 94 96 96 97 98 99 99 98 96 93 96 97
81 81 82 86 90 90 92 96 93 87 84 85 90 84 86 89 88 87 91 94 95 96 96 95 96 98 99 99 98 95 95 97
82 82 85 87 89 89 90 92 96 93 90 91 93 94 90 90 88 88 89 91 94 96 97 97 96 96 97 98 97 97 96 96
84 87 87 87 88 88 90 92 93 94 92 95 97 97 95 94 92 92 92 91 91 89 89 91 89 87 91 96 96 97 98 96
86 87 88 88 89 89 89 90 92 91 94 96 98 96 94 93 93 92 89 86 83 82 85 88 88 85 86 90 95 98 97 97
88 86 86 89 89 90 88 90 91 89 93 96 93 92 91 93 93 93 92 91 90 88 90 89 90 87 96 97 92 88 88 90
95 96 94 92 94 90 92 90 86 88 91 89 90 89 88 90 89 90 92 92 90 91 92 92 97 95 95 93 90 85 88 90
97 99 99 99 97 91 90 86 89 90 90 90 87 87 88 87 88 90 91 89 90 91 90 91 94 93 93 92 90 86 88 87

GFSFLT1_sfc_rhum_093.txt.gz
RH
15 14 17 18 17 24 62 87 89 92 96 97 98 98 99 98 98 98 97 97 97 96 96 95 95 94 96 96 97 97 97 97
39 20 16 18 24 24 52 87 91 94 98 97 98 98 98 99 98 96 97 97 98 98 95 97 92 94 93 95 98 97 99 98
65 66 40 20 20 35 52 78 92 92 92 93 94 93 96 96 97 97 95 97 98 97 96 96 94 96 96 97 96 97 98 97
71 71 80 80 59 47 71 77 90 88 89 96 99 98 99 100 99 98 98 97 98 96 97 96 96 96 98 97 96 93 95 98
72 77 79 82 83 82 68 78 86 88 92 94 95 89 92 90 95 93 98 98 98 97 97 97 97 97 97 96 95 94 94 97
78 73 70 79 83 93 79 82 86 88 93 88 90 88 90 98 97 96 98 99 98 96 96 97 97 96 95 96 98 97 96 94
73 70 70 75 86 90 92 91 91 89 90 90 85 89 95 98 98 94 99 99 98 97 94 97 96 96 97 96 96 95 95 93
75 75 80 80 84 90 91 92 90 93 89 93 92 93 92 94 96 97 97 96 96 97 98 98 97 97 96 96 96 96 95 96
76 78 82 83 83 90 96 92 93 92 93 93 94 92 91 93 94 95 92 87 89 92 95 94 98 97 98 97 97 96 96 96
77 78 82 86 86 92 95 96 94 92 94 94 96 94 94 94 96 95 91 89 95 92 98 99 99 99 98 98 98 98 98 97
75 78 83 86 88 91 93 95 94 93 93 95 94 94 94 96 97 98 98 98 97 97 99 99 99 99 99 99 98 97 97 97
78 79 81 86 88 90 93 95 97 96 97 98 97 95 96 96 97 98 98 97 96 97 96 96 94 98 96 98 98 97 98 98
80 78 80 86 89 90 92 93 96 98 98 98 97 96 96 95 98 98 97 98 98 97 96 98 99 99 99 99 99 99 98 98
84 83 86 87 88 90 91 93 95 94 98 99 99 97 95 95 96 97 96 98 98 98 98 98 98 99 99 99 99 99 99 97
88 89 90 90 90 90 90 93 94 93 93 98 99 98 98 98 98 97 96 95 95 94 93 94 94 96 99 99 99 99 99 99
90 89 92 93 95 93 89 90 92 93 92 96 98 98 97 96 96 93 91 90 90 90 91 92 92 91 91 97 99 99 98 98
94 90 93 95 95 95 91 91 92 91 92 95 95 97 94 95 96 95 94 94 94 94 95 94 96 90 97 99 99 97 95 96
95 95 95 96 96 96 94 90 88 91 91 93 91 94 93 93 91 92 95 96 95 96 95 94 97 95 95 96 96 94 95 96
96 96 96 96 96 96 94 88 89 92 94 94 94 93 97 90 91 93 95 95 96 96 95 94 95 93 94 94 93 92 94 96

GFSFLT1_sfc_rhum_096.txt.gz
RH
61 63 63 66 41 22 27 69 92 95 94 95 97 98 98 96 97 93 92 95 94 97 96 96 96 97 98 98 96 96 96 95
66 64 68 73 78 50 27 56 91 94 94 95 96 95 95 97 94 92 91 93 95 96 97 96 96 96 96 95 96 97 99 97
66 66 73 79 83 83 69 37 79 94 85 88 94 94 92 94 94 94 95 94 95 96 97 97 95 96 96 96 96 99 97 96
74 71 74 74 80 85 82 88 64 88 87 88 99 98 99 99 98 99 97 97 96 95 94 95 96 94 96 96 97 98 98 98
75 75 73 72 75 80 82 84 83 87 88 89 91 88 89 88 97 98 99 98 98 96 93 95 90 95 98 96 96 96 95 97
81 73 70 68 70 78 80 83 89 84 90 89 93 92 90 95 90 75 91 98 98 98 97 93 94 95 95 97 98 97 96 94
73 67 67 72 78 81 80 85 93 91 85 90 94 90 96 98 96 96 96 97 98 98 97 97 94 95 96 97 96 96 96 95
75 73 75 76 81 86 87 88 92 93 86 89 93 92 93 93 95 96 95 98 98 98 97 97 96 94 94 96 97 97 97 97
77 79 79 79 82 87 90 91 95 95 94 91 92 95 96 96 94 92 92 95 96 96 96 94 91 97 97 95 97 96 96 97
78 80 83 82 85 89 93 92 92 94 94 94 95 96 97 97 98 97 94 89 89 92 93 94 96 96 96 98 98 98 97 96
79 76 80 82 86 88 91 92 94 95 96 95 96 95 96 97 98 97 93 90 90 89 93 95 98 98 98 98 98 97 98 97
80 82 80 83 86 88 90 93 95 96 98 97 98 98 98 97 97 97 95 93 95 95 94 98 99 99 99 99 99 99 98 98
80 79 80 86 88 88 88 91 96 94 96 98 98 98 97 98 98 98 98 98 98 97 96 96 95 97 97 99 98 98 98 98
83 81 84 87 90 91 90 90 94 93 93 97 99 99 98 98 98 98 98 98 99 98 98 97 97 99 99 99 99 99 98 98
85 87 87 88 88 92 90 91 92 90 90 94 96 97 99 98 97 98 98 96 98 98 96 96 96 96 97 98 99 99 99 99
91 90 90 92 93 92 88 90 91 89 88 92 96 95 95 97 98 97 95 93 93 92 93 93 92 90 90 97 98 99 99 98
92 88 90 95 95 95 88 89 89 89 91 94 91 94 91 95 97 97 96 96 94 94 95 94 95 90 97 99 100 98 97 97
95 95 96 94 95 95 96 92 85 88 92 91 93 93 95 96 98 94 96 97 95 96 95 94 97 95 96 96 96 95 97 98
95 95 93 94 93 91 89 96 92 88 90 94 94 93 96 99 100 95 96 96 96 96 96 94 95 93 94 95 95 94 96 98

GFSFLT1_sfc_rhum_102.txt.gz
RH
34 34 35 36 38 42 44 45 52 52 45 42 50 51 70 60 59 58 66 80 82 82 78 82 84 86 84 87 88 87 85 81
31 35 37 40 42 44 45 49 51 50 46 35 45 53 66 62 55 60 66 73 83 82 82 86 85 85 83 86 87 92 90 87
36 37 40 44 45 47 49 49 50 50 48 44 38 45 48 56 57 66 67 74 82 82 86 88 87 86 86 86 81 92 90 90
39 41 44 46 48 51 51 52 53 56 57 51 47 48 50 65 71 77 73 76 82 84 86 88 88 86 87 82 86 90 96 96
40 42 44 48 50 53 56 58 57 56 61 58 56 47 49 52 58 77 84 84 88 87 91 90 91 90 90 86 85 84 87 96
43 43 43 44 52 56 62 65 64 65 68 72 67 57 52 46 55 78 89 90 90 87 91 92 94 92 91 88 85 80 86 91
42 42 43 45 50 58 66 71 72 71 73 75 78 73 57 50 55 81 91 95 92 90 88 88 90 92 91 92 87 79 82 88
44 44 45 50 57 63 70 76 78 75 78 80 78 74 64 65 59 76 92 92 93 92 84 85 88 89 88 89 88 83 83 90
45 46 49 53 61 65 76 83 83 81 84 85 84 68 63 65 71 79 80 83 76 78 81 73 72 79 86 89 89 81 79 89
48 47 53 58 64 71 84 84 82 82 88 90 88 73 68 81 82 85 81 69 61 67 73 84 92 92 88 90 87 80 87 93
49 49 56 60 67 71 85 84 85 85 88 91 90 83 80 79 84 84 82 70 70 75 80 86 94 93 90 91 84 86 93 94
52 52 56 60 63 70 84 84 87 89 89 91 94 91 86 85 88 88 91 88 82 87 86 96 95 95 92 92 90 81 84 92
52 52 56 61 63 69 79 86 89 89 87 89 94 94 96 96 95 94 91 93 89 86 88 94 95 90 88 87 86 87 91 97
54 54 58 60 64 70 80 87 92 91 87 90 91 92 95 96 97 95 92 82 80 78 79 87 88 83 82 92 92 96 94 94
60 58 59 60 63 68 81 92 96 96 93 88 92 94 95 95 95 96 94 86 85 79 79 86 88 91 90 92 93 93 93 85
64 63 64 61 65 70 71 84 87 84 94 96 93 92 93 92 93 94 96 95 94 91 93 92 90 86 85 94 95 93 95 96
66 64 66 68 71 73 74 79 95 86 87 91 90 94 89 91 92 93 94 94 95 92 93 90 92 89 98 99 97 94 92 93
78 74 74 74 80 78 80 92 86 91 85 86 93 95 94 95 94 93 98 97 96 97 95 94 96 95 98 97 97 90 93 94
83 84 81 80 79 78 74 75 83 87 87 89 89 93 92 94 95 100 100 100 100 100 98 95 93 92 96 96 95 92 94 94

GFSFLT1_sfc_rhum_105.txt.gz
RH
25 25 28 29 30 35 36 38 43 46 45 46 40 38 47 47 45 48 56 64 67 72 67 75 75 78 82 85 87 79 80 72
24 29 31 34 35 37 40 44 46 43 42 42 38 34 38 42 45 49 56 59 72 75 71 75 74 79 74 86 86 85 90 82
28 30 32 38 40 43 44 44 46 45 43 44 44 43 36 37 42 51 54 65 76 80 77 73 76 81 75 85 84 89 89 88
30 32 35 38 41 47 47 48 50 51 52 49 47 47 47 48 49 50 51 60 70 81 80 77 82 81 84 88 82 85 87 93
31 33 36 38 40 45 48 51 52 51 54 57 63 56 47 33 40 44 54 59 71 80 81 80 85 82 86 83 79 82 76 90
35 35 35 34 40 46 51 54 54 55 58 65 71 72 58 47 42 44 54 66 74 76 82 84 89 87 88 86 84 80 74 82
35 34 35 36 41 49 54 57 57 60 67 71 77 80 75 63 47 47 51 68 82 84 87 87 86 86 91 92 91 81 75 75
36 36 38 41 47 53 59 62 64 66 74 76 80 83 82 77 64 55 56 77 88 91 91 92 85 85 78 73 82 86 81 79
38 38 42 44 49 55 65 68 69 71 79 82 82 84 83 75 68 58 59 67 76 87 91 91 87 82 74 82 84 84 83 85
41 40 44 47 52 60 71 68 67 75 83 86 87 87 89 80 71 63 67 70 70 89 91 90 91 88 86 87 89 87 85 84
41 41 45 48 54 58 69 69 74 79 83 86 87 88 89 83 67 67 66 70 72 74 84 89 84 79 77 81 90 84 87 82
41 42 44 48 52 57 67 72 76 83 86 86 88 90 90 91 77 68 66 67 67 70 76 82 82 81 85 84 79 90 86 83
42 43 45 50 55 58 62 74 78 81 84 86 88 88 89 92 94 90 74 73 75 70 77 73 74 81 83 92 92 91 88 82
46 45 48 52 56 60 63 74 80 80 83 88 88 89 90 92 93 94 95 83 90 89 77 74 75 81 86 91 91 89 88 79
52 50 51 54 57 60 64 79 85 88 84 90 94 93 92 93 92 94 92 96 94 92 84 80 80 80 79 80 87 92 87 85
56 57 58 58 61 63 64 72 80 88 88 92 97 96 90 93 94 96 93 95 92 94 92 92 91 88 88 88 90 95 95 93
61 60 62 66 67 67 67 71 76 84 92 92 87 88 89 92 94 95 95 92 94 92 95 95 93 88 99 100 97 95 96 97
73 68 69 72 75 69 73 71 72 80 94 96 92 95 95 96 93 94 98 96 94 98 97 94 96 96 98 99 97 92 95 95
81 78 76 80 83 74 69 66 72 82 90 96 96 97 98 98 96 94 97 98 100 99 96 97 96 93 97 96 94 92 94 95

GFSFLT1_sfc_rhum_108.txt.gz
RH
28 26 32 32 39 45 48 52 60 62 61 66 64 61 60 54 60 64 67 78 79 80 77 78 78 76 77 86 85 88 90 89
28 34 39 40 47 48 50 55 59 58 58 58 57 58 58 56 51 59 68 74 78 75 76 76 81 79 77 87 93 90 96 94
30 33 39 46 47 52 52 52 56 57 56 61 62 64 62 61 59 60 61 64 76 79 81 82 81 81 82 88 90 94 93 90
31 32 41 47 50 54 51 54 56 59 61 58 60 62 61 62 60 57 54 61 69 77 81 86 89 92 96 89 90 91 92 94
31 35 39 44 50 54 54 56 57 55 62 66 71 72 73 69 67 60 53 65 67 74 81 84 88 88 95 94 91 88 84 94
36 37 38 39 48 55 59 61 59 61 63 69 74 77 74 72 71 69 66 59 66 72 81 86 89 89 85 87 91 85 87 86
35 36 39 43 49 57 62 64 64 63 65 70 76 80 80 80 78 78 72 65 68 70 81 86 86 91 91 88 86 89 91 88
39 41 44 48 54 59 62 64 67 65 68 73 76 80 81 84 83 83 81 80 78 74 81 93 92 91 90 87 90 93 91 92
42 42 48 49 54 59 64 67 70 69 74 77 78 81 86 85 86 83 82 80 75 79 87 90 92 91 89 90 86 94 92 94
44 42 48 51 56 62 67 71 70 72 76 81 84 85 88 91 89 88 87 81 75 80 90 92 92 90 90 92 93 90 82 90
41 43 49 53 58 59 66 71 75 76 78 79 82 86 86 90 91 92 91 81 76 81 89 90 93 91 93 88 84 83 89 93
43 46 49 54 56 60 68 72 78 82 82 79 84 86 86 87 90 91 92 95 74 78 87 90 91 95 94 92 89 89 92 94
45 48 50 55 59 59 66 74 78 83 81 81 83 86 86 88 89 90 93 93 92 77 80 86 90 90 89 92 93 91 91 92
50 51 54 57 61 65 69 76 79 81 81 84 84 86 89 90 90 89 90 91 93 92 81 88 92 89 91 88 88 88 88 88
56 57 58 61 63 67 69 78 80 84 85 87 88 89 88 90 90 90 90 90 91 91 94 94 95 91 87 84 84 87 88 90
61 63 64 66 68 70 68 74 79 81 86 91 92 88 86 88 90 91 91 92 91 90 92 93 95 94 93 97 93 91 86 90
64 65 67 73 75 74 73 76 81 83 87 89 88 89 89 90 91 92 92 94 96 92 95 94 96 91 97 100 99 97 96 97
71 74 76 79 89 84 83 80 80 92 94 88 91 96 97 97 97 92 93 94 93 97 96 94 97 96 97 98 99 97 97 98
79 84 85 90 96 91 84 75 80 92 92 91 96 97 98 98 97 96 97 96 95 96 96 97 95 95 98 98 97 95 96 96

GFSFLT1_sfc_rhum_111.txt.gz
RH
38 44 48 51 56 56 57 61 66 67 69 71 71 75 74 72 68 68 84 93 89 91 85 84 94 91 95 96 88 93 86 91
45 48 49 54 57 58 61 67 71 69 73 74 71 74 71 68 64 63 66 86 89 88 83 85 86 86 80 90 93 92 98 95
46 50 54 60 64 64 65 66 69 68 70 72 78 78 79 73 69 66 64 65 79 87 89 88 87 91 90 89 92 98 98 94
47 48 58 63 67 70 68 68 66 67 69 70 72 73 73 78 75 74 70 68 69 73 84 88 90 93 89 96 98 96 99 99
45 48 56 62 69 68 69 68 68 62 70 76 81 84 86 80 78 74 74 71 74 74 75 78 88 93 94 96 95 92 92 93
48 52 54 58 66 74 72 68 68 68 71 76 80 83 80 77 78 79 78 77 76 75 78 79 79 95 94 94 93 89 86 91
48 48 51 61 68 76 74 70 68 68 71 73 80 82 79 81 80 82 80 81 84 82 78 84 80 79 92 93 89 89 92 86
53 54 57 61 71 74 65 71 73 70 72 71 76 82 79 83 83 84 85 88 89 88 84 87 89 80 81 91 92 92 93 93
54 56 61 64 65 71 75 75 77 77 76 77 74 79 82 82 84 83 85 87 86 84 87 85 91 95 90 90 91 92 95 93
53 58 61 63 64 71 75 76 80 80 80 82 79 80 84 87 86 86 87 88 86 89 89 85 82 87 87 88 82 94 91 91
54 58 61 63 65 70 76 76 77 80 81 81 81 83 84 86 88 89 88 88 90 93 91 88 85 79 80 83 87 94 94 94
57 60 62 65 66 68 74 78 80 83 82 82 84 85 85 85 88 88 89 90 89 91 93 90 84 82 79 87 93 92 93 92
59 61 63 68 70 70 71 77 81 82 81 82 85 84 84 86 88 87 88 89 88 89 92 96 85 76 75 94 94 90 89 94
65 66 69 72 71 71 73 78 82 82 80 84 86 86 86 87 87 87 86 88 87 86 89 92 94 87 84 92 91 91 90 91
67 70 71 72 71 74 75 82 83 84 84 86 89 90 89 87 86 86 86 86 88 87 88 90 92 94 97 95 96 96 96 95
68 69 73 75 75 79 76 81 83 83 86 90 92 90 88 86 86 86 86 87 86 86 88 88 91 93 89 95 96 96 96 98
70 72 73 79 81 86 85 88 85 84 89 96 94 90 89 91 86 86 86 88 87 87 90 90 92 89 96 96 98 98 97 99
78 84 87 88 95 95 95 97 92 90 94 94 96 92 97 97 90 87 90 94 89 90 90 91 93 95 96 96 98 96 98 98
87 94 94 96 97 96 96 96 94 93 92 93 96 91 92 96 94 97 97 94 96 96 94 93 93 94 97 98 99 95 94 96

GFSFLT1_sfc_rhum_114.txt.gz
RH
56 60 60 61 63 64 64 65 68 70 72 74 76 81 76 77 77 75 76 85 82 96 93 92 97 98 97 95 91 92 91 90
58 59 60 62 65 67 67 70 73 71 76 78 77 80 77 78 73 72 75 83 82 77 88 95 95 96 87 96 96 97 98 96
60 65 67 70 71 70 70 70 71 72 74 80 87 80 88 77 79 75 75 78 82 80 86 87 92 95 96 97 93 92 95 98
62 68 75 74 75 74 73 72 72 72 76 75 77 79 81 83 79 79 77 75 78 83 84 86 87 91 94 94 96 91 84 99
61 68 75 75 77 73 72 68 70 69 74 79 85 88 89 81 82 79 78 77 80 83 86 87 88 89 91 93 97 96 95 94
64 67 72 72 73 76 70 71 70 70 74 78 84 86 84 81 78 78 77 78 80 84 87 89 89 86 86 91 98 98 92 94
61 62 66 72 72 71 70 72 74 72 74 79 76 78 81 83 80 82 81 80 80 80 81 90 90 89 89 90 96 94 94 90
66 68 71 73 74 71 68 76 77 78 80 81 75 75 78 83 82 84 84 87 88 88 87 89 91 90 88 88 97 96 94 93
67 68 68 69 72 73 75 76 81 78 80 80 76 76 81 81 82 83 84 86 85 85 88 88 90 90 89 88 92 96 95 95
74 73 70 68 72 78 78 79 80 81 84 84 81 81 84 86 84 84 84 84 79 84 88 90 90 92 91 88 94 95 95 92
76 73 70 70 71 73 77 78 82 80 82 81 80 81 83 84 85 87 86 86 87 88 88 88 90 91 93 90 89 89 91 90
69 73 72 72 70 73 78 80 84 83 80 81 81 81 81 83 85 85 86 87 86 87 86 89 90 92 94 92 86 88 92 92
69 70 71 72 72 72 76 84 86 86 81 80 81 79 79 82 84 84 85 86 84 85 85 86 87 88 91 94 90 84 94 95
72 70 74 72 75 76 80 86 87 85 82 80 84 83 82 82 82 83 82 83 83 83 84 86 87 88 88 93 95 93 93 92
69 73 69 74 77 79 82 88 86 86 83 85 89 84 85 82 83 82 83 82 83 83 84 85 88 87 87 90 91 97 95 91
70 74 73 78 78 83 82 84 85 83 86 89 92 90 86 86 89 90 84 83 82 83 85 85 89 88 89 94 94 97 98 93
75 75 74 77 78 81 80 82 86 83 84 90 86 86 86 91 92 91 89 86 86 86 87 88 90 86 96 94 93 94 96 96
84 86 86 89 94 95 92 85 85 87 88 88 88 91 93 94 94 91 95 96 90 91 93 94 91 91 93 96 94 93 93 95
88 92 94 97 99 97 93 90 90 84 87 89 88 88 93 95 94 95 95 97 97 96 96 96 96 97 97 92 94 97 95 96

GFSFLT1_sfc_rhum_117.txt.gz
RH
68 69 70 74 77 74 74 74 78 79 83 84 85 81 80 85 82 81 81 91 87 93 94 95 98 99 96 95 95 96 94 96
69 70 74 75 74 72 74 76 78 77 82 90 94 89 88 80 82 77 78 86 86 83 86 90 91 96 97 98 95 90 94 98
72 75 78 78 79 76 75 77 78 79 80 88 88 91 92 84 82 78 80 79 85 83 91 90 92 93 89 98 98 97 98 98
76 72 75 77 78 76 74 76 76 78 79 80 84 83 84 85 81 82 79 78 81 86 89 93 95 95 94 93 97 97 96 99
72 77 78 78 73 70 71 72 75 72 74 82 93 97 91 89 86 81 78 78 82 85 88 92 95 94 95 94 93 97 97 98
78 83 77 72 76 74 76 73 75 78 80 81 82 82 79 77 77 80 80 78 78 81 84 83 85 89 92 95 92 89 96 94
75 78 79 80 72 69 76 75 75 75 77 79 82 79 81 82 81 84 81 80 82 84 83 87 89 91 92 92 92 94 92 97
89 75 75 79 79 76 71 78 81 80 82 81 76 78 79 82 84 84 86 86 86 86 86 89 89 90 90 92 94 93 90 96
96 93 77 72 73 76 78 77 82 83 83 80 77 78 81 81 81 82 84 84 84 84 86 87 88 88 90 92 96 93 90 96
100 99 90 77 74 76 79 80 81 81 82 83 81 81 84 85 82 82 82 82 79 83 85 87 86 88 90 92 96 95 88 93
94 97 93 86 80 78 78 81 85 81 81 82 82 82 82 82 84 85 84 83 84 85 85 86 87 86 88 91 94 94 92 92
89 89 83 80 82 84 85 86 83 81 82 81 84 85 82 78 83 84 85 85 84 84 83 85 84 85 86 90 93 94 94 90
88 85 78 74 76 79 84 86 83 82 81 82 84 82 82 82 81 82 83 83 82 82 82 83 84 85 86 88 91 93 91 93
70 70 72 77 78 83 83 81 82 83 80 83 86 86 83 84 80 79 82 82 82 81 82 84 86 87 86 88 88 90 94 92
70 73 74 74 77 79 80 84 81 84 85 87 89 88 88 87 84 83 82 80 81 81 82 82 86 84 85 88 89 92 94 94
74 76 80 79 80 80 80 81 86 84 87 89 91 88 83 84 84 85 85 85 81 79 82 82 85 84 85 91 92 90 92 92
76 75 80 84 86 89 88 91 93 90 89 91 85 86 84 88 90 89 88 87 85 84 86 85 87 86 93 91 93 92 90 91
76 80 85 88 94 95 96 96 80 79 82 81 81 86 88 90 88 87 90 92 90 91 90 90 90 95 97 94 92 93 94 95
78 88 80 87 88 97 95 96 91 82 83 86 82 82 85 85 89 92 92 91 93 93 92 91 90 92 97 97 96 96 95 95

GFSFLT1_sfc_rhum_120.txt.gz
RH
77 77 74 75 76 75 75 76 79 80 85 86 86 85 88 87 87 82 86 90 88 92 94 94 94 96 98 99 98 99 98 97
76 75 76 77 76 76 78 78 80 80 89 92 90 87 90 89 81 82 84 88 89 89 92 94 95 96 94 91 98 99 97 93
74 75 75 75 76 72 73 75 77 78 80 85 90 90 90 89 84 85 82 84 89 85 94 95 96 97 95 93 91 99 97 94
75 73 78 79 78 75 70 72 75 74 76 77 81 87 86 86 86 84 81 80 86 91 93 95 94 95 96 98 97 93 98 99
75 77 76 78 78 77 77 74 74 69 76 78 84 90 86 80 82 84 82 81 83 86 86 87 89 91 93 93 95 97 98 97
94 92 81 77 78 83 79 81 84 74 76 77 82 86 83 80 80 81 80 81 79 79 84 86 89 91 91 93 93 90 97 94
92 86 87 83 78 81 82 77 76 80 79 76 81 82 80 82 82 83 81 80 78 82 82 86 87 89 91 92 93 94 94 91
95 93 88 86 86 86 86 86 84 78 78 76 77 79 81 82 82 84 84 84 84 85 84 87 88 88 89 90 93 94 95 96
96 96 96 94 86 81 80 84 86 86 80 80 78 77 80 80 81 81 82 82 82 81 84 85 86 86 87 90 94 95 95 97
93 94 92 92 93 86 89 84 81 79 81 81 80 77 82 83 80 79 81 80 76 80 82 84 85 85 86 89 93 93 95 95
87 87 88 87 88 90 87 84 85 81 81 81 80 81 81 82 82 84 82 81 81 82 82 83 83 84 85 87 90 89 93 93
86 87 87 87 87 87 89 86 86 87 83 82 83 82 81 80 82 82 84 83 82 81 82 82 83 84 84 87 89 87 89 92
84 79 77 77 84 86 84 85 85 85 80 83 85 84 82 82 83 82 82 81 80 79 80 81 82 82 84 88 90 90 92 93
78 76 76 75 80 80 83 88 88 84 82 84 83 86 85 85 83 79 79 82 80 79 79 83 84 87 85 85 88 88 88 89
76 71 78 78 78 80 82 88 88 87 86 86 89 89 88 88 84 85 85 83 83 81 82 82 87 86 84 84 84 87 87 86
76 73 80 82 77 88 84 88 90 87 86 86 90 88 84 86 86 85 84 84 84 82 84 83 87 85 86 88 84 85 86 87
73 75 78 83 84 87 88 88 81 80 84 82 80 80 80 85 86 87 85 84 85 86 88 86 90 85 96 87 85 86 84 85
79 85 87 89 94 95 93 94 91 82 84 83 80 83 83 86 85 85 90 91 89 89 88 88 90 87 86 85 86 89 89 90
86 90 89 92 96 94 97 94 89 82 85 87 83 84 87 87 88 91 92 93 94 94 88 87 89 90 82 82 84 91 92 92

GFSFLT1_sfc_rhum_123.txt.gz
RH
63 60 58 55 56 60 65 68 74 72 63 63 58 60 63 61 60 65 69 75 71 72 70 74 75 76 83 95 98 97 96 93
58 61 60 58 60 59 62 68 71 68 64 65 62 63 63 61 61 67 69 72 76 72 66 71 74 75 74 75 80 96 98 97
62 62 61 63 64 65 64 66 68 69 65 66 66 67 63 65 63 67 67 71 75 70 77 77 80 80 79 77 76 80 96 95
73 68 68 69 70 69 69 72 71 73 69 60 61 62 61 62 63 64 66 70 72 78 78 79 80 84 87 87 86 80 82 94
77 75 71 70 71 69 66 70 74 75 75 71 71 75 78 71 69 66 67 70 73 76 78 81 84 86 88 88 84 87 85 83
87 80 78 70 69 70 77 69 73 77 79 78 79 78 75 71 69 72 72 71 71 75 78 81 83 84 87 90 90 90 89 87
80 79 78 81 79 73 68 72 73 76 78 80 87 85 80 78 76 76 75 71 72 73 76 79 81 84 87 88 89 90 93 92
87 88 83 82 82 80 82 82 82 77 74 74 77 79 78 78 78 78 79 75 76 76 77 81 82 83 83 85 88 89 91 94
91 85 83 83 80 77 75 75 75 75 78 80 78 75 77 76 75 76 76 77 75 74 77 78 80 80 82 83 87 91 92 95
87 84 80 79 77 78 80 78 75 75 76 76 74 74 75 78 77 75 75 74 71 76 76 79 79 80 81 83 86 86 90 92
80 75 76 75 73 76 77 76 78 78 76 77 77 76 76 76 74 78 77 75 76 76 78 78 79 79 80 82 85 84 87 90
73 70 68 70 72 76 80 79 80 82 77 77 79 80 78 77 77 77 78 76 76 77 79 81 80 82 81 84 86 84 88 89
65 64 64 67 71 73 75 79 81 82 78 79 80 78 77 76 78 76 77 77 76 78 79 82 80 81 81 83 86 84 88 89
62 63 67 68 73 75 76 80 82 79 76 79 80 78 78 77 74 74 73 74 74 75 79 85 85 86 82 80 78 81 83 85
64 68 69 69 70 75 77 81 76 73 70 72 77 75 75 74 71 71 73 73 74 75 78 82 89 84 81 80 77 78 79 79
67 70 70 72 71 71 70 72 68 65 67 71 74 69 68 69 71 70 70 72 72 72 75 78 85 84 86 85 79 77 77 78
70 71 69 74 71 72 73 75 69 64 67 68 66 67 66 72 70 70 69 70 70 70 73 74 81 72 80 82 80 80 78 79
74 77 78 79 81 73 77 75 64 65 69 68 70 76 78 80 74 73 78 80 79 81 79 78 80 75 73 79 80 82 83 86
80 83 82 82 85 83 82 69 67 70 72 74 72 75 80 81 82 86 87 85 88 88 88 83 83 82 70 73 80 91 93 90

GFSFLT1_sfc_rhum_126.txt.gz
RH
48 46 46 44 44 49 55 58 61 61 60 61 58 53 53 49 48 53 59 60 63 59 51 58 60 56 60 76 91 93 96 94
45 48 47 46 49 50 54 60 66 65 56 60 60 61 51 48 46 56 58 60 66 62 54 54 55 55 57 63 62 68 75 83
50 47 47 50 50 51 54 60 65 64 60 62 57 60 49 49 49 52 56 60 65 63 74 72 74 71 72 68 66 61 58 76
54 52 51 48 51 52 49 52 60 66 67 61 58 52 50 51 50 50 56 60 66 73 77 78 81 81 81 79 79 82 65 56
59 55 61 56 56 57 54 58 53 56 62 61 64 52 50 54 51 54 56 61 68 74 76 74 78 79 83 86 80 87 85 80
66 67 66 64 63 63 62 57 58 61 63 69 67 65 58 52 52 60 60 62 63 68 72 73 76 76 81 85 87 89 90 90
70 69 67 65 59 57 59 60 59 62 68 67 70 72 75 68 65 62 59 62 64 67 68 70 74 76 80 82 85 86 88 89
74 69 63 62 63 62 59 58 57 60 66 70 70 73 71 72 77 75 73 72 71 69 71 74 74 77 78 79 82 83 85 91
73 69 65 65 61 63 63 60 60 61 65 68 65 67 67 69 72 75 80 76 72 70 72 73 75 75 76 78 80 81 81 84
74 69 67 66 59 69 70 64 61 63 66 68 69 71 72 72 69 69 74 75 68 71 73 76 75 76 76 78 79 80 80 83
66 57 59 61 63 66 70 67 70 67 69 68 67 70 70 70 66 71 71 70 71 74 76 76 75 75 76 78 81 80 83 86
59 52 51 57 60 64 69 72 72 73 71 70 70 71 70 68 70 71 70 70 71 73 75 76 75 76 75 77 78 78 82 84
50 47 49 56 61 62 64 70 71 71 69 71 73 71 68 67 69 69 70 70 69 69 70 73 70 73 75 77 78 77 80 83
46 47 51 56 61 63 65 68 67 64 62 65 65 65 65 65 64 65 66 65 66 68 68 73 71 73 74 74 75 77 78 80
46 49 56 60 62 63 61 65 61 58 56 57 61 60 59 57 56 58 61 59 60 62 65 66 67 67 71 73 70 73 74 78
51 52 59 61 64 61 60 61 58 57 57 61 63 57 55 57 59 58 58 58 54 53 55 57 58 58 65 76 69 70 72 75
53 53 61 62 63 60 61 58 53 50 54 56 57 58 55 61 60 62 59 58 59 59 61 59 58 46 71 77 74 71 72 75
57 62 64 68 66 63 63 56 49 50 53 55 59 67 68 71 63 62 67 69 65 73 68 66 68 64 70 73 73 76 77 81
65 70 68 68 69 72 61 51 52 54 58 63 62 65 74 74 76 80 82 86 86 86 82 81 75 74 68 70 70 82 92 86

GFSFLT1_sfc_rhum_129.txt.gz
RH
41 40 40 38 40 44 47 50 56 54 47 50 52 63 62 58 58 62 60 60 60 58 50 55 55 53 53 59 74 72 92 93
39 42 42 41 43 43 45 50 55 51 49 49 47 54 61 61 57 56 54 57 63 62 61 61 63 61 64 66 62 64 58 70
41 41 42 44 45 46 44 45 48 49 46 49 48 49 46 54 59 54 52 56 64 62 71 70 71 71 74 76 77 72 60 54
43 44 48 48 50 51 46 47 47 52 53 45 46 44 43 45 45 57 56 56 60 69 69 68 70 72 74 78 81 85 84 68
44 48 52 52 52 52 51 51 49 50 55 52 57 51 51 50 48 47 50 55 58 64 68 69 70 69 75 78 73 84 87 91
52 56 54 49 50 50 52 51 49 55 56 60 56 59 55 52 54 56 53 54 56 59 65 68 71 68 74 78 80 83 83 90
55 55 52 51 50 52 51 50 47 52 55 59 65 67 67 64 67 65 63 58 56 62 64 67 70 72 75 77 78 81 82 85
56 53 52 52 50 52 50 49 50 54 59 59 61 62 62 63 67 70 74 73 72 73 70 71 71 73 74 74 77 79 81 87
60 54 51 48 47 54 55 51 52 56 59 62 62 63 61 60 65 66 70 73 72 73 79 75 76 74 71 73 74 78 80 86
64 58 52 49 49 61 63 58 54 59 63 63 64 63 64 65 64 66 68 69 64 69 71 77 72 70 72 75 76 80 79 82
58 48 48 48 55 57 64 64 63 62 64 63 63 64 64 63 63 68 68 68 68 69 71 71 69 71 72 74 75 76 79 82
55 48 44 47 50 55 64 65 66 65 64 65 65 64 64 64 66 68 68 69 69 70 71 73 71 72 72 74 74 75 77 80
46 40 42 46 51 54 59 65 64 63 62 63 64 62 60 62 65 67 69 75 72 70 70 68 68 69 71 74 76 76 79 82
44 40 42 46 52 57 59 61 58 55 53 54 55 55 53 53 53 55 55 55 57 60 59 61 60 66 68 68 69 72 74 80
43 41 44 48 52 54 56 61 56 53 52 53 55 52 51 51 51 51 53 51 50 50 52 53 53 57 68 71 65 67 69 70
46 45 47 51 54 54 54 54 55 51 54 57 57 51 51 53 56 55 54 54 51 50 51 51 50 50 59 72 63 64 66 67
46 44 48 51 53 52 54 51 48 46 48 50 51 53 51 57 56 59 56 55 55 55 56 54 55 41 69 71 66 64 65 65
47 49 53 53 56 55 56 50 43 44 46 48 54 60 63 65 60 61 65 66 63 68 66 62 62 59 67 74 72 66 66 71
62 63 60 62 61 58 53 46 46 47 50 54 55 59 65 66 70 78 81 82 84 82 78 75 69 67 66 70 72 73 83 78

GFSFLT1_sfc_rhum_132.txt.gz
RH
41 41 43 42 45 48 51 56 62 62 59 59 61 67 67 64 64 66 66 72 71 71 68 74 73 73 75 78 80 77 84 87
38 42 45 46 51 50 51 56 61 58 58 60 59 63 69 65 61 64 64 68 71 70 72 72 73 76 78 78 82 83 82 76
41 43 48 53 54 56 53 53 56 58 57 57 60 63 63 63 65 67 66 65 70 66 73 73 70 73 73 74 79 78 83 82
42 46 53 54 56 59 54 55 56 61 63 57 57 58 60 61 61 63 64 66 68 72 72 69 71 74 77 78 76 80 83 76
44 49 53 53 56 55 53 52 55 57 63 64 67 63 64 63 62 64 63 66 68 71 71 71 69 71 74 75 74 78 86 85
50 53 51 50 54 58 58 54 54 57 60 64 67 70 68 64 66 69 69 69 68 70 73 72 72 71 71 78 78 82 82 89
52 52 50 50 52 57 57 54 54 58 59 62 68 68 66 65 66 68 70 68 72 73 73 75 74 74 75 73 77 76 82 85
53 51 49 51 54 59 55 53 55 60 62 61 65 66 66 65 70 70 71 74 70 76 75 80 77 75 75 71 75 78 82 87
57 52 49 47 53 59 59 55 58 62 64 63 65 64 66 68 68 70 70 73 70 72 76 75 75 75 76 77 80 80 78 85
63 58 52 48 53 64 66 61 59 62 64 65 66 68 68 70 70 69 73 73 66 72 73 77 75 75 75 77 80 79 78 80
60 53 50 50 56 63 66 64 64 64 66 66 66 65 64 68 69 73 73 72 70 72 73 73 73 74 76 76 77 77 80 81
57 50 48 51 54 60 68 66 66 66 67 66 69 68 65 65 68 69 71 72 70 70 70 71 73 75 76 79 77 79 81 82
51 48 45 51 53 56 64 66 65 64 64 62 64 60 59 62 66 64 70 66 66 64 63 63 66 72 75 82 77 77 81 84
49 44 45 48 54 57 60 62 58 57 56 60 61 61 60 61 61 62 60 59 58 60 59 60 62 69 73 76 71 73 74 76
49 45 46 49 53 56 60 64 61 56 57 59 62 62 60 61 60 61 62 58 57 57 59 60 60 64 70 71 66 68 68 68
49 46 49 52 54 56 54 59 60 56 59 63 67 61 60 62 65 64 64 64 59 59 60 60 59 59 66 77 65 65 66 68
46 44 47 52 53 54 54 53 53 52 53 58 58 60 59 65 66 69 66 65 65 66 68 64 66 51 72 76 69 68 69 73
48 48 50 52 54 56 59 55 48 49 54 55 60 65 70 74 70 72 76 77 74 80 78 75 74 67 69 75 72 79 80 83
52 56 61 64 63 61 58 48 50 53 57 59 59 64 72 76 80 86 87 88 90 90 86 84 81 69 66 72 75 82 84 84

GFSFLT1_sfc_rhum_135.txt.gz
RH
52 54 58 62 66 65 68 70 74 73 75 72 73 81 80 78 75 72 72 76 71 74 75 78 74 76 79 81 84 84 90 92
54 58 63 66 69 68 68 72 74 71 73 76 80 78 81 79 77 72 72 77 74 72 71 74 72 77 75 78 78 81 89 84
54 65 70 70 71 69 69 68 74 72 72 71 79 82 76 78 77 75 75 76 76 71 78 73 71 76 74 76 74 78 75 79
59 62 68 74 76 74 68 71 73 77 74 72 69 73 68 71 72 74 73 73 76 79 78 77 76 75 79 76 78 78 82 73
60 66 69 74 78 72 70 68 69 69 76 77 82 84 83 83 78 75 74 74 75 79 79 77 74 76 76 76 72 79 82 83
67 68 68 69 70 75 69 71 70 72 76 79 85 86 82 80 78 74 73 70 70 74 78 81 76 77 77 76 76 78 80 89
65 62 62 68 72 70 71 72 74 74 75 76 80 82 80 81 78 72 72 70 72 72 70 76 76 77 78 79 76 77 84 84
67 69 68 70 72 74 68 74 77 76 75 74 70 69 70 75 74 76 76 77 76 75 75 78 77 76 76 78 80 78 80 86
70 66 64 68 72 78 77 75 77 73 68 74 68 67 71 73 72 75 78 78 75 73 77 76 75 77 76 76 78 78 77 83
76 72 66 73 80 82 82 78 76 66 69 73 70 70 71 74 73 74 76 74 66 74 74 76 75 76 79 77 80 80 78 80
75 70 68 72 79 83 81 78 73 69 70 69 69 68 70 72 72 74 75 74 72 72 70 72 74 77 81 81 83 82 83 84
75 70 67 71 78 83 83 79 70 70 67 71 72 68 71 70 69 68 75 78 74 72 68 72 73 76 79 90 78 80 83 88
70 61 65 70 76 80 80 73 68 75 68 69 71 73 74 76 78 74 75 73 75 66 65 67 72 74 75 81 79 75 77 83
69 61 63 66 71 76 79 78 76 73 70 70 73 72 73 74 74 74 72 70 70 63 61 65 71 77 80 78 70 72 72 75
59 58 63 66 69 73 77 77 71 71 66 71 76 76 76 76 75 73 72 69 70 64 66 67 69 73 78 79 66 72 70 76
58 58 65 66 69 72 72 75 67 67 68 77 81 76 75 77 76 76 75 75 73 66 68 69 68 71 73 76 69 73 69 70
56 54 60 62 63 68 66 68 71 70 73 76 74 75 75 81 81 81 79 78 77 78 74 72 69 62 80 73 73 78 71 67
56 58 60 62 66 65 69 66 60 66 72 73 76 80 83 88 85 83 88 90 82 85 83 80 76 68 77 81 79 81 84 82
57 61 65 72 71 69 64 58 62 67 74 75 75 82 87 90 92 95 96 94 96 96 89 88 85 67 71 78 80 86 87 86